GFSWCAN_850_dewp_132.txt.gz
Dewpoint
-1 -2 -2 -4 -4 -4 -4 -4 -4 -4 -5 -12 -10 -4 -4 -4 -4 -4 -4 -4 -7 -4 -5 -6 -6 -7 -6 -6 -4 -5 -4 -6 -5 -4 -4 -2 -2 -3 -4 -3 -2 -1 -2 -4 -3 -6 -3 -1 -3 -2 -1 -2 -2 -2
-2 -2 -3 -3 -4 -4 -5 -5 -5 -5 -8 -10 -9 -7 -4 -4 -6 -6 -4 -4 -7 -6 -4 -6 -6 -6 -6 -6 -6 -6 -6 -5 -4 -5 -6 -5 -2 -4 -4 -2 -3 -3 -1 -3 0 0 -1 -1 -1 -2 -2 -2 -2 -3
-2 -2 -3 -3 -4 -4 -5 -8 -8 -5 -8 -9 -9 -7 -4 -4 -7 -8 -7 -6 -5 -7 -7 -8 -10 -7 -7 -6 -7 -5 -4 -4 -6 -6 -5 -5 -3 -5 -5 -4 -4 -2 -1 -2 -2 -1 -1 -2 -2 -3 -3 -2 -3 -4
-2 -3 -3 -3 -4 -4 -6 -4 -6 -7 -10 -10 -7 -10 -5 -6 -7 -10 -11 -10 -10 -5 -4 -4 -5 -6 -7 -8 -8 -8 -4 -5 -5 -6 -6 -6 -3 -5 -4 -5 -4 -3 0 -2 -2 -2 -2 -1 -3 -3 -4 -4 -4 -4
-2 -4 -3 -4 -5 -7 -6 -6 -6 -6 -10 -9 -7 -7 -8 -7 -4 -5 -6 -5 -6 -5 -4 -4 -5 -5 -6 -7 -6 -7 -6 -6 -6 -5 -6 -5 -4 -5 -5 -4 -1 -1 -1 -4 -3 -2 -2 -2 -3 -5 -5 -4 -5 -5
-2 -4 -3 -6 -6 -9 -9 -7 -4 -3 -4 -6 -9 -9 -8 -7 -5 -5 -5 -6 -7 -9 -8 -4 -5 -4 -5 -6 -6 -6 -6 -5 -5 -5 -4 -4 -5 -5 -4 -3 -3 -3 -4 -4 -3 -4 -4 -5 -6 -6 -6 -6 -6 -6
-2 -4 -4 -8 -6 -5 -5 -3 -3 -3 -3 -4 -6 -9 -8 -8 -6 -6 -4 -7 -9 -8 -6 -6 -6 -4 -6 -6 -6 -6 -6 -5 -5 -5 -3 -4 -5 -6 -5 -2 -2 -4 -3 -3 -4 -7 -5 -7 -8 -7 -7 -7 -7 -8
-2 -2 -4 -6 -6 -5 -4 -2 -3 -3 -4 -4 -6 -8 -8 -6 -7 -7 -7 -8 -6 -4 -5 -8 -6 -5 -6 -5 -4 -5 -5 -4 -4 -4 -4 -4 -4 -4 -2 -2 -6 -5 -5 -8 -8 -7 -7 -8 -8 -8 -9 -9 -10 -10
-3 -2 -3 -3 -5 -5 -4 -3 -4 -4 -5 -5 -5 -7 -7 -4 -4 -4 -6 -6 -7 -5 -4 -6 -5 -5 -5 -3 -2 -2 -3 -4 -3 -5 -4 -4 -3 -0 -2 -4 -7 -7 -7 -7 -9 -9 -9 -9 -10 -10 -11 -11 -11 -12
-3 -2 -2 -3 -3 -3 -2 -3 -3 -6 -6 -5 -7 -8 -6 -4 -5 -5 -5 -7 -8 -4 -4 -5 -4 -5 -3 -1 -1 -2 -2 -2 -1 -3 -4 -3 -2 -5 -5 -7 -8 -9 -9 -9 -9 -10 -11 -11 -12 -12 -12 -12 -13 -13
-5 -4 -2 -2 -2 -3 -3 -3 -4 -6 -5 -7 -6 -4 -5 -5 -5 -4 -5 -6 -4 -5 -5 -5 -5 -5 -5 -4 -4 -2 -3 -3 -3 -2 -1 -0 -1 -3 -6 -8 -9 -10 -10 -11 -11 -11 -12 -13 -13 -14 -14 -14 -15 -14
-5 -5 -3 -3 -3 -3 -3 -4 -6 -6 -7 -7 -6 -4 -4 -4 -4 -7 -6 -5 -3 -4 -5 -5 -5 -7 -7 -4 -4 -3 -4 -5 -2 -1 -0 1 -2 -3 -7 -6 -9 -10 -11 -11 -11 -12 -13 -13 -14 -14 -14 -14 -15 -15
-4 -5 -3 -3 -3 -4 -4 -5 -6 -7 -6 -6 -7 -5 -6 -4 -7 -7 -5 -4 -5 -5 -5 -4 -4 -6 -4 -4 -3 -7 -5 -3 -4 -3 -1 -3 -3 -4 -7 -8 -9 -10 -11 -12 -12 -12 -12 -13 -14 -15 -14 -14 -14 -15
-6 -4 -3 -3 -3 -4 -4 -4 -6 -5 -6 -8 -5 -4 -5 -5 -5 -5 -4 -5 -7 -6 -4 -5 -3 -4 -3 -5 -5 -7 -6 -3 -4 -4 -2 -5 -7 -7 -8 -9 -10 -10 -10 -11 -11 -11 -12 -14 -14 -13 -13 -13 -14 -15
-11 -6 -4 -3 -3 -4 -4 -5 -4 -4 -7 -6 -5 -7 -5 -6 -4 -2 -2 -2 -3 -4 -4 -5 -4 -4 -6 -6 -5 -5 -4 -3 -3 -4 -5 -5 -8 -8 -8 -9 -8 -8 -10 -11 -11 -11 -13 -13 -14 -13 -13 -14 -15 -14
-12 -11 -6 -4 -3 -4 -4 -4 -3 -5 -6 -4 -5 -5 -4 -4 -3 -3 -2 -1 -2 -3 -3 -4 -5 -6 -6 -5 -2 -4 -3 -4 -5 -4 -5 -7 -7 -7 -7 -8 -8 -10 -10 -10 -11 -12 -12 -12 -13 -14 -14 -14 -14 -13
-11 -11 -11 -5 -3 -4 -4 -4 -4 -5 -6 -4 -4 -5 -4 -3 -2 -4 -3 -3 -2 -2 -1 -1 -3 -4 -5 -5 -3 -3 -4 -4 -5 -6 -6 -6 -7 -7 -8 -8 -9 -10 -11 -11 -13 -12 -12 -13 -13 -14 -15 -15 -14 -14
-11 -13 -11 -5 -4 -4 -4 -4 -4 -5 -5 -4 -5 -4 -5 -4 -3 -4 -3 -4 -3 -2 -1 -2 -1 -2 -5 -4 -6 -5 -5 -5 -5 -5 -6 -7 -7 -8 -8 -9 -9 -11 -11 -12 -13 -13 -13 -12 -12 -14 -15 -15 -14 -15
-13 -11 -8 -4 -4 -5 -5 -5 -5 -5 -4 -4 -4 -5 -6 -7 -5 -5 -5 -5 -5 -3 -3 -2 -2 -4 -7 -5 -5 -5 -6 -6 -7 -7 -8 -8 -9 -10 -10 -11 -10 -10 -11 -10 -11 -12 -13 -13 -14 -15 -15 -16 -16 -16
-10 -10 -5 -4 -4 -5 -5 -5 -5 -6 -5 -5 -5 -6 -6 -6 -8 -9 -7 -6 -5 -4 -3 -5 -7 -6 -6 -6 -5 -6 -6 -6 -7 -8 -9 -10 -10 -10 -12 -12 -13 -11 -11 -11 -12 -12 -13 -14 -15 -15 -15 -16 -16 -16
-6 -5 -4 -5 -6 -7 -5 -5 -5 -6 -5 -6 -6 -6 -6 -7 -7 -7 -6 -7 -6 -5 -5 -5 -7 -7 -6 -7 -6 -6 -7 -7 -7 -7 -9 -10 -10 -10 -11 -12 -11 -12 -12 -12 -13 -13 -14 -15 -15 -15 -16 -16 -16 -16
-5 -4 -5 -6 -6 -6 -6 -6 -6 -6 -6 -6 -6 -6 -6 -6 -6 -5 -6 -6 -6 -6 -6 -7 -7 -8 -8 -8 -8 -8 -8 -8 -8 -9 -9 -10 -10 -11 -12 -12 -11 -12 -13 -14 -14 -15 -15 -16 -16 -15 -15 -15 -15 -15
-5 -5 -6 -6 -7 -7 -6 -6 -7 -6 -10 -6 -6 -5 -6 -5 -5 -6 -7 -7 -7 -8 -9 -8 -8 -9 -9 -9 -9 -10 -10 -10 -10 -10 -11 -11 -12 -12 -13 -13 -13 -13 -14 -15 -15 -15 -16 -16 -15 -16 -16 -15 -16 -15
-6 -6 -8 -6 -7 -6 -6 -6 -6 -5 -6 -7 -8 -8 -7 -6 -8 -8 -11 -7 -9 -9 -9 -9 -9 -10 -10 -10 -10 -10 -10 -11 -11 -11 -12 -13 -13 -14 -14 -14 -15 -15 -14 -13 -14 -15 -14 -15 -15 -16 -16 -15 -15 -16
-10 -8 -8 -7 -6 -6 -11 -7 -7 -7 -9 -9 -7 -8 -9 -9 -12 -12 -11 -9 -9 -10 -10 -11 -10 -11 -11 -11 -11 -11 -11 -12 -12 -12 -12 -12 -13 -13 -13 -13 -14 -14 -15 -15 -14 -15 -15 -15 -16 -17 -16 -16 -16 -16
-9 -6 -8 -7 -7 -8 -8 -8 -9 -9 -8 -7 -8 -7 -9 -11 -9 -9 -9 -9 -10 -11 -12 -12 -11 -11 -11 -11 -12 -12 -12 -11 -12 -14 -14 -13 -13 -12 -13 -13 -13 -14 -15 -16 -16 -15 -15 -15 -15 -16 -17 -16 -16 -16
-10 -9 -7 -6 -6 -5 -6 -6 -6 -6 -6 -7 -8 -9 -10 -9 -10 -11 -9 -10 -11 -11 -12 -10 -10 -11 -11 -11 -12 -13 -13 -13 -13 -14 -15 -16 -15 -15 -14 -14 -14 -15 -16 -16 -17 -16 -16 -15 -15 -16 -16 -16 -16 -17
-7 -8 -11 -8 -7 -6 -9 -8 -8 -8 -9 -7 -8 -10 -9 -11 -12 -10 -11 -10 -10 -11 -12 -12 -11 -11 -12 -12 -13 -13 -14 -14 -13 -14 -16 -17 -17 -17 -17 -17 -17 -17 -16 -17 -17 -17 -17 -17 -16 -16 -16 -17 -17 -17
-9 -8 -8 -10 -9 -7 -9 -10 -10 -9 -9 -8 -10 -12 -12 -12 -12 -12 -11 -11 -11 -12 -12 -12 -12 -12 -13 -14 -14 -15 -15 -15 -15 -16 -16 -16 -16 -16 -16 -17 -21 -19 -17 -16 -17 -17 -17 -17 -17 -17 -18 -17 -17 -17
-9 -8 -11 -11 -11 -11 -11 -11 -11 -11 -11 -10 -10 -12 -13 -13 -13 -12 -12 -12 -12 -13 -14 -14 -14 -14 -15 -15 -15 -15 -16 -15 -15 -15 -16 -16 -16 -15 -16 -21 -27 -27 -23 -19 -18 -18 -18 -17 -17 -17 -18 -18 -18 -19
-10 -11 -13 -12 -13 -12 -13 -13 -13 -13 -13 -12 -12 -14 -14 -14 -13 -13 -13 -13 -14 -14 -14 -14 -14 -14 -15 -15 -16 -16 -16 -16 -16 -16 -16 -16 -16 -19 -27 -28 -28 -27 -26 -24 -21 -19 -20 -19 -18 -18 -18 -20 -22 -25
-10 -11 -13 -17 -14 -14 -14 -14 -14 -14 -12 -13 -13 -14 -14 -14 -14 -14 -15 -15 -14 -14 -14 -15 -16 -16 -16 -16 -16 -17 -17 -17 -17 -18 -20 -26 -29 -29 -29 -28 -28 -28 -27 -25 -25 -25 -25 -25 -25 -27 -29 -29 -29 -28
-11 -12 -13 -14 -14 -14 -14 -13 -13 -13 -14 -13 -14 -15 -15 -15 -16 -16 -15 -15 -15 -14 -15 -15 -15 -15 -16 -16 -16 -17 -19 -25 -28 -29 -29 -29 -29 -29 -29 -30 -31 -31 -31 -31 -30 -29 -29 -27 -26 -26 -25 -25 -25 -25

GFSWCAN_850_dewp_135.txt.gz
Dewpoint
-1 -2 -2 -3 -3 -5 -4 -4 -4 -6 -11 -11 -5 -3 -3 -4 -4 -4 -6 -9 -10 -5 -5 -8 -8 -8 -7 -6 -4 -5 -5 -6 -6 -4 -5 -3 -2 -3 -4 -4 -5 -2 -2 -4 -4 -7 -5 -2 -3 -3 -2 -2 -2 -2
-1 -2 -2 -3 -4 -4 -4 -6 -5 -6 -13 -6 -3 -3 -3 -4 -5 -4 -6 -8 -9 -9 -4 -6 -7 -8 -8 -7 -6 -5 -6 -6 -5 -5 -6 -6 -2 -5 -4 -3 -4 -5 -5 -3 -3 -2 -2 -2 -2 -2 -2 -2 -2 -3
-2 -2 -3 -4 -3 -4 -4 -4 -5 -10 -11 -5 -4 -3 -5 -7 -6 -5 -5 -8 -10 -6 -6 -7 -7 -7 -7 -7 -7 -5 -4 -4 -5 -6 -6 -5 -3 -5 -6 -4 -4 -4 -2 -1 -3 -2 -1 -3 -2 -3 -3 -3 -3 -4
-2 -2 -3 -4 -5 -5 -5 -5 -6 -11 -10 -8 -4 -4 -6 -9 -9 -6 -5 -7 -10 -6 -5 -4 -5 -6 -7 -8 -7 -7 -6 -6 -7 -7 -6 -6 -4 -5 -4 -5 -5 -6 -1 -2 -4 -2 -2 -2 -3 -3 -4 -4 -5 -5
-2 -2 -3 -4 -5 -7 -9 -5 -6 -10 -10 -9 -4 -5 -8 -10 -10 -10 -13 -9 -8 -8 -4 -4 -6 -5 -7 -9 -9 -5 -5 -6 -6 -5 -7 -6 -5 -5 -5 -4 -5 -1 -2 -4 -5 -3 -3 -2 -3 -5 -5 -5 -5 -6
-2 -2 -3 -4 -5 -5 -5 -7 -8 -10 -8 -9 -7 -7 -6 -7 -9 -11 -11 -8 -6 -6 -6 -4 -5 -5 -5 -6 -7 -8 -7 -7 -6 -6 -5 -4 -4 -6 -5 -3 -3 -3 -4 -4 -3 -4 -4 -5 -6 -6 -7 -6 -7 -7
-3 -3 -3 -4 -6 -4 -5 -7 -10 -8 -7 -7 -7 -7 -5 -5 -8 -9 -6 -9 -10 -11 -7 -6 -5 -4 -5 -6 -6 -6 -6 -5 -5 -5 -4 -4 -5 -4 -5 -2 -4 -3 -3 -3 -3 -4 -5 -6 -7 -7 -8 -8 -9 -9
-3 -3 -6 -7 -5 -6 -5 -4 -4 -6 -8 -9 -8 -8 -7 -8 -9 -8 -8 -9 -9 -9 -8 -7 -5 -5 -6 -6 -4 -5 -5 -5 -4 -4 -3 -4 -4 -4 -3 -4 -5 -3 -4 -7 -7 -7 -6 -8 -8 -9 -10 -11 -12 -13
-3 -5 -6 -9 -7 -5 -3 -3 -3 -4 -6 -9 -9 -7 -7 -7 -6 -6 -7 -8 -8 -7 -6 -7 -5 -5 -5 -2 -2 -2 -3 -4 -4 -5 -5 -5 -4 -2 -3 -5 -6 -7 -6 -7 -8 -9 -9 -9 -10 -11 -12 -13 -13 -13
-3 -5 -6 -4 -4 -3 -2 -3 -4 -5 -6 -8 -7 -8 -5 -5 -7 -7 -8 -9 -9 -7 -6 -5 -5 -4 -4 -2 -2 -3 -3 -2 -2 -4 -4 -4 -3 -4 -3 -5 -7 -8 -5 -5 -9 -10 -10 -11 -12 -13 -13 -13 -14 -14
-3 -3 -6 -6 -4 -3 -3 -4 -4 -6 -7 -9 -7 -4 -4 -5 -6 -6 -6 -6 -6 -6 -6 -5 -5 -5 -3 -3 -3 -3 -5 -3 -3 -3 -2 -1 -1 -4 -8 -7 -7 -6 -8 -10 -11 -11 -12 -13 -13 -13 -14 -14 -15 -15
-2 -3 -3 -5 -3 -3 -3 -4 -6 -6 -8 -7 -5 -4 -4 -6 -6 -7 -8 -5 -4 -5 -5 -5 -6 -6 -6 -4 -4 -3 -4 -4 -1 -2 -1 -1 -2 -7 -9 -7 -6 -10 -10 -11 -11 -12 -12 -12 -13 -14 -14 -14 -14 -15
-3 -2 -3 -3 -3 -3 -3 -6 -6 -8 -7 -6 -8 -6 -6 -5 -7 -8 -5 -4 -5 -5 -5 -4 -5 -8 -4 -4 -4 -8 -6 -5 -4 -1 -1 -3 -3 -7 -5 -7 -10 -10 -11 -12 -11 -11 -11 -13 -14 -14 -14 -14 -14 -15
-4 -2 -2 -3 -3 -3 -5 -6 -5 -6 -8 -8 -6 -6 -8 -6 -6 -5 -5 -5 -6 -6 -5 -4 -3 -4 -3 -5 -7 -8 -7 -4 -3 -4 -3 -7 -4 -6 -7 -8 -9 -10 -10 -10 -11 -11 -12 -14 -14 -14 -13 -14 -14 -15
-3 -3 -3 -3 -3 -4 -6 -6 -6 -6 -8 -6 -7 -8 -6 -6 -4 -3 -3 -2 -3 -4 -4 -5 -4 -5 -7 -7 -6 -6 -6 -3 -4 -5 -6 -6 -6 -7 -8 -9 -9 -9 -9 -10 -11 -11 -13 -13 -13 -14 -14 -15 -15 -14
-4 -4 -3 -3 -3 -4 -6 -4 -5 -6 -6 -5 -5 -5 -4 -4 -3 -3 -2 -2 -2 -4 -4 -4 -6 -8 -7 -7 -4 -6 -4 -5 -7 -7 -5 -6 -7 -8 -9 -8 -8 -9 -10 -10 -11 -13 -12 -12 -13 -14 -14 -15 -15 -14
-4 -4 -3 -3 -4 -4 -5 -4 -4 -6 -6 -5 -5 -4 -3 -3 -3 -4 -3 -3 -2 -2 -3 -3 -6 -6 -5 -5 -3 -4 -6 -8 -5 -5 -5 -6 -6 -7 -7 -8 -9 -10 -10 -12 -13 -13 -13 -13 -13 -13 -15 -15 -15 -14
-9 -4 -3 -4 -4 -4 -4 -5 -5 -6 -6 -5 -5 -4 -4 -3 -4 -4 -3 -4 -3 -2 -2 -2 -2 -2 -6 -4 -5 -8 -5 -5 -5 -5 -5 -6 -6 -7 -8 -8 -9 -10 -11 -12 -12 -13 -13 -14 -13 -14 -15 -16 -16 -16
-14 -7 -4 -3 -4 -5 -4 -5 -5 -5 -5 -5 -5 -5 -5 -4 -5 -5 -5 -5 -4 -3 -3 -3 -4 -5 -7 -6 -5 -5 -6 -5 -6 -6 -7 -7 -8 -9 -9 -10 -11 -10 -10 -11 -11 -12 -13 -13 -14 -14 -15 -15 -16 -16
-13 -13 -6 -4 -4 -5 -5 -4 -5 -6 -5 -5 -5 -6 -7 -7 -6 -6 -6 -5 -4 -4 -4 -4 -5 -5 -5 -5 -5 -5 -6 -6 -6 -7 -8 -9 -10 -11 -11 -12 -13 -13 -12 -11 -11 -12 -13 -14 -15 -15 -16 -17 -17 -17
-9 -7 -5 -4 -5 -4 -5 -4 -5 -6 -5 -5 -6 -6 -6 -6 -7 -7 -6 -6 -6 -5 -6 -4 -5 -5 -5 -6 -6 -5 -6 -6 -6 -7 -8 -9 -10 -10 -11 -11 -12 -12 -12 -12 -13 -13 -14 -15 -15 -15 -16 -15 -16 -17
-6 -5 -5 -5 -5 -6 -6 -6 -6 -6 -6 -6 -6 -6 -7 -7 -6 -6 -6 -6 -7 -6 -6 -6 -6 -6 -7 -7 -7 -7 -7 -7 -8 -8 -8 -8 -10 -10 -11 -12 -12 -12 -13 -14 -14 -15 -16 -16 -16 -15 -15 -15 -15 -15
-5 -5 -5 -5 -7 -7 -6 -6 -7 -7 -9 -7 -6 -7 -7 -7 -6 -6 -7 -7 -7 -7 -7 -7 -7 -7 -8 -8 -8 -9 -9 -9 -9 -9 -10 -10 -11 -12 -13 -13 -12 -13 -13 -14 -15 -15 -16 -16 -16 -16 -16 -16 -16 -15
-5 -5 -5 -5 -8 -7 -6 -5 -6 -7 -7 -7 -7 -10 -9 -6 -7 -8 -12 -8 -8 -9 -8 -8 -8 -8 -9 -9 -10 -10 -10 -10 -10 -11 -11 -11 -12 -13 -14 -15 -15 -15 -15 -14 -14 -15 -15 -15 -16 -17 -16 -16 -16 -16
-6 -7 -7 -7 -7 -8 -10 -7 -8 -9 -11 -12 -9 -11 -9 -8 -13 -13 -11 -10 -9 -9 -9 -9 -9 -9 -10 -10 -11 -10 -11 -11 -11 -12 -12 -12 -13 -14 -14 -14 -14 -14 -15 -15 -15 -15 -14 -14 -15 -16 -17 -16 -17 -16
-8 -6 -9 -8 -9 -9 -9 -9 -11 -12 -12 -10 -10 -8 -9 -13 -11 -9 -10 -9 -9 -10 -10 -10 -10 -10 -11 -11 -12 -12 -11 -11 -12 -13 -12 -12 -12 -13 -13 -13 -13 -14 -14 -15 -16 -16 -15 -15 -15 -16 -16 -16 -16 -17
-10 -10 -7 -7 -6 -6 -8 -7 -7 -9 -10 -10 -9 -9 -9 -9 -12 -12 -10 -10 -10 -11 -11 -12 -12 -12 -12 -12 -11 -12 -12 -12 -12 -13 -15 -15 -14 -13 -13 -13 -14 -14 -15 -15 -17 -17 -17 -16 -16 -16 -16 -16 -17 -17
-7 -8 -10 -7 -6 -6 -10 -10 -9 -8 -9 -6 -8 -9 -10 -12 -12 -10 -10 -10 -11 -11 -12 -12 -11 -11 -11 -11 -12 -13 -13 -13 -13 -13 -14 -16 -17 -17 -17 -17 -17 -17 -17 -16 -16 -17 -17 -17 -16 -16 -17 -17 -17 -18
-8 -8 -8 -10 -8 -7 -7 -10 -9 -7 -8 -8 -10 -11 -11 -10 -11 -11 -11 -11 -10 -11 -12 -11 -11 -11 -11 -12 -12 -13 -14 -14 -14 -14 -16 -17 -17 -17 -17 -17 -22 -26 -23 -18 -17 -17 -18 -17 -17 -17 -18 -19 -18 -18
-9 -8 -10 -10 -12 -11 -10 -9 -10 -10 -9 -9 -9 -10 -11 -12 -12 -12 -12 -11 -11 -11 -12 -12 -12 -12 -12 -13 -14 -14 -15 -15 -15 -15 -16 -16 -16 -16 -16 -20 -28 -29 -28 -27 -23 -20 -19 -19 -18 -17 -17 -18 -19 -21
-9 -9 -12 -12 -13 -12 -12 -12 -11 -11 -11 -11 -11 -11 -12 -13 -12 -13 -13 -12 -12 -12 -12 -13 -13 -13 -13 -14 -15 -16 -16 -16 -16 -16 -16 -16 -16 -17 -24 -29 -29 -29 -28 -27 -26 -23 -21 -21 -20 -20 -22 -25 -27 -28
-10 -11 -13 -15 -14 -13 -13 -13 -14 -13 -12 -12 -13 -13 -13 -13 -14 -13 -13 -13 -12 -13 -13 -14 -14 -14 -14 -15 -15 -16 -16 -17 -17 -17 -17 -18 -24 -29 -29 -29 -29 -29 -29 -29 -29 -29 -29 -29 -29 -30 -29 -27 -26 -25
-11 -12 -13 -14 -15 -14 -14 -14 -13 -13 -13 -13 -13 -14 -14 -14 -14 -14 -14 -14 -13 -14 -15 -15 -15 -15 -15 -16 -16 -17 -17 -18 -19 -22 -26 -29 -29 -29 -30 -30 -32 -32 -32 -31 -29 -27 -26 -26 -25 -25 -25 -25 -25 -25

GFSWCAN_850_dewp_138.txt.gz
Dewpoint
-2 -1 -1 -1 -1 -1 -2 -2 -5 -10 -13 -9 -4 -2 -3 -3 -4 -3 -7 -9 -11 -6 -6 -9 -9 -8 -7 -6 -5 -6 -6 -7 -5 -4 -5 -3 -2 -3 -4 -5 -5 -7 -4 -6 -5 -7 -5 -3 -3 -3 -3 -2 -2 -2
-2 -2 -2 -2 -2 -2 -2 -4 -9 -13 -14 -7 -3 -3 -4 -4 -3 -5 -9 -10 -9 -8 -5 -7 -8 -8 -8 -7 -6 -5 -7 -6 -6 -6 -7 -5 -2 -5 -5 -4 -5 -4 -6 -5 -5 -5 -4 -2 -3 -3 -3 -3 -3 -3
-2 -2 -3 -3 -3 -3 -5 -9 -12 -12 -6 -3 -3 -4 -4 -4 -4 -7 -10 -9 -9 -6 -7 -7 -6 -6 -7 -7 -7 -6 -5 -5 -5 -7 -7 -5 -4 -5 -6 -5 -4 -6 -3 -1 -3 -3 -2 -3 -2 -3 -4 -3 -3 -5
-2 -3 -3 -3 -4 -5 -6 -10 -11 -4 -3 -3 -4 -4 -5 -5 -5 -8 -10 -9 -9 -8 -4 -4 -6 -7 -7 -7 -8 -8 -8 -7 -7 -8 -6 -6 -4 -5 -5 -6 -5 -7 -2 -2 -3 -3 -3 -2 -3 -3 -3 -3 -5 -6
-2 -3 -2 -3 -3 -4 -5 -11 -7 -4 -3 -4 -5 -8 -9 -6 -5 -8 -10 -9 -11 -10 -4 -5 -7 -7 -9 -10 -8 -7 -7 -7 -7 -6 -7 -6 -5 -5 -5 -4 -6 -3 -3 -3 -5 -4 -5 -3 -3 -5 -4 -5 -6 -7
-2 -3 -3 -4 -4 -4 -7 -10 -8 -4 -4 -5 -8 -11 -11 -7 -6 -6 -9 -8 -9 -8 -8 -4 -5 -5 -6 -8 -5 -5 -6 -7 -8 -7 -5 -5 -4 -6 -5 -3 -5 -3 -3 -4 -4 -4 -4 -4 -6 -6 -7 -7 -8 -9
-2 -3 -4 -6 -8 -5 -6 -9 -8 -5 -5 -6 -8 -8 -9 -10 -12 -14 -10 -7 -9 -8 -6 -5 -4 -4 -5 -5 -5 -6 -6 -6 -6 -5 -4 -5 -5 -3 -5 -3 -5 -3 -3 -4 -4 -4 -4 -6 -6 -7 -8 -9 -10 -11
-2 -3 -5 -6 -5 -5 -6 -9 -8 -8 -6 -7 -5 -5 -8 -11 -13 -7 -7 -9 -12 -12 -7 -7 -5 -5 -5 -6 -4 -5 -5 -5 -4 -4 -3 -4 -4 -5 -4 -5 -4 -3 -3 -4 -6 -7 -6 -7 -8 -9 -10 -12 -13 -13
-3 -3 -5 -4 -7 -9 -10 -7 -7 -7 -7 -7 -6 -9 -10 -11 -9 -7 -8 -10 -11 -12 -9 -7 -4 -4 -5 -2 -2 -2 -4 -5 -4 -5 -5 -5 -4 -3 -4 -4 -5 -5 -5 -7 -7 -8 -9 -9 -10 -12 -13 -13 -14 -14
-4 -5 -5 -5 -5 -4 -6 -8 -9 -9 -8 -7 -8 -9 -6 -6 -8 -9 -10 -12 -12 -9 -7 -5 -4 -4 -4 -3 -3 -3 -3 -3 -5 -5 -4 -5 -4 -4 -3 -4 -5 -7 -6 -4 -6 -9 -10 -11 -12 -13 -13 -13 -14 -15
-5 -8 -4 -6 -4 -3 -4 -5 -8 -9 -6 -10 -9 -3 -5 -6 -7 -9 -8 -7 -7 -7 -6 -5 -5 -4 -3 -4 -3 -3 -5 -4 -4 -3 -4 -3 -3 -5 -6 -6 -7 -5 -5 -8 -10 -11 -12 -12 -12 -13 -13 -14 -14 -15
-7 -9 -7 -5 -3 -3 -4 -5 -8 -8 -9 -8 -6 -5 -6 -8 -7 -8 -9 -6 -5 -6 -5 -6 -5 -6 -4 -4 -3 -3 -4 -3 -3 -3 -3 -3 -5 -7 -8 -8 -6 -8 -10 -11 -11 -12 -12 -12 -13 -14 -14 -14 -14 -15
-6 -5 -4 -3 -3 -3 -4 -6 -7 -9 -8 -8 -9 -8 -7 -6 -9 -11 -7 -5 -5 -5 -5 -5 -7 -6 -3 -4 -4 -8 -7 -6 -3 -2 -2 -4 -6 -8 -8 -5 -8 -10 -10 -11 -11 -11 -11 -12 -14 -14 -14 -13 -14 -15
-6 -6 -5 -4 -3 -3 -5 -6 -8 -7 -9 -9 -8 -6 -9 -7 -8 -6 -5 -5 -5 -5 -5 -6 -4 -3 -3 -5 -8 -9 -7 -5 -5 -5 -3 -6 -5 -7 -6 -8 -9 -10 -10 -10 -10 -11 -12 -13 -13 -14 -15 -15 -15 -15
-3 -4 -5 -3 -3 -4 -4 -6 -6 -8 -8 -6 -9 -8 -7 -6 -4 -4 -3 -3 -3 -5 -4 -5 -5 -5 -7 -7 -6 -7 -6 -6 -5 -6 -7 -5 -5 -6 -7 -8 -9 -9 -9 -10 -10 -11 -13 -12 -13 -14 -14 -15 -15 -15
-2 -3 -3 -3 -3 -4 -5 -5 -7 -8 -6 -5 -5 -5 -5 -4 -3 -2 -3 -3 -4 -4 -4 -6 -7 -9 -7 -7 -6 -7 -6 -6 -8 -8 -5 -6 -6 -5 -7 -8 -9 -8 -9 -10 -11 -13 -13 -13 -13 -13 -14 -15 -15 -15
-3 -3 -3 -3 -5 -5 -5 -6 -7 -7 -6 -5 -5 -4 -4 -4 -4 -3 -3 -3 -3 -3 -6 -6 -8 -7 -6 -5 -5 -5 -8 -9 -5 -5 -5 -6 -5 -6 -7 -7 -7 -9 -10 -11 -13 -13 -14 -14 -13 -13 -15 -16 -16 -16
-4 -3 -3 -4 -5 -5 -4 -6 -7 -7 -5 -5 -6 -4 -4 -4 -4 -4 -4 -3 -2 -2 -2 -3 -3 -4 -7 -5 -8 -9 -5 -5 -5 -5 -5 -5 -6 -6 -7 -8 -9 -9 -11 -11 -12 -12 -13 -13 -14 -14 -15 -15 -16 -16
-3 -4 -4 -4 -5 -5 -5 -6 -7 -6 -5 -5 -5 -4 -5 -5 -4 -4 -4 -3 -3 -3 -3 -4 -4 -4 -7 -7 -6 -5 -5 -5 -5 -6 -6 -6 -7 -8 -8 -9 -11 -11 -10 -11 -11 -11 -12 -13 -14 -15 -15 -16 -17 -17
-4 -4 -4 -4 -6 -7 -5 -5 -6 -7 -6 -5 -6 -7 -6 -5 -5 -5 -5 -4 -4 -4 -4 -4 -5 -5 -4 -5 -5 -5 -5 -5 -6 -6 -7 -7 -8 -10 -11 -11 -11 -12 -13 -12 -12 -12 -13 -14 -15 -15 -16 -16 -16 -17
-5 -4 -4 -5 -7 -6 -5 -5 -6 -5 -5 -5 -6 -6 -7 -6 -7 -7 -7 -7 -6 -6 -6 -5 -5 -5 -5 -6 -6 -6 -6 -6 -6 -7 -7 -8 -9 -10 -10 -11 -11 -12 -13 -13 -13 -14 -14 -15 -16 -15 -15 -15 -15 -15
-5 -5 -4 -5 -6 -6 -6 -6 -6 -6 -7 -6 -6 -7 -8 -8 -7 -7 -6 -6 -7 -8 -7 -7 -7 -7 -6 -6 -6 -6 -6 -6 -6 -7 -7 -8 -9 -10 -10 -11 -12 -12 -13 -14 -15 -16 -16 -16 -16 -16 -16 -15 -16 -16
-7 -5 -5 -5 -6 -6 -6 -6 -7 -7 -9 -7 -7 -7 -7 -7 -7 -7 -7 -7 -7 -8 -7 -7 -7 -7 -7 -7 -7 -8 -8 -8 -8 -9 -9 -9 -10 -10 -11 -12 -13 -13 -13 -14 -15 -15 -16 -16 -16 -17 -17 -16 -16 -16
-5 -5 -5 -7 -8 -7 -6 -6 -6 -7 -7 -8 -8 -10 -9 -7 -7 -8 -11 -8 -8 -8 -8 -7 -7 -7 -8 -8 -9 -9 -10 -10 -10 -10 -10 -11 -11 -13 -14 -15 -15 -16 -16 -15 -14 -14 -14 -14 -15 -16 -17 -17 -16 -17
-5 -6 -6 -8 -6 -8 -8 -8 -7 -10 -12 -10 -11 -12 -10 -8 -13 -13 -11 -10 -9 -8 -9 -8 -8 -8 -9 -9 -10 -10 -10 -10 -11 -11 -11 -12 -14 -15 -15 -15 -14 -14 -15 -15 -15 -15 -16 -15 -15 -15 -16 -17 -16 -17
-8 -7 -9 -9 -10 -10 -8 -8 -10 -13 -13 -9 -10 -8 -8 -13 -11 -9 -11 -9 -9 -9 -9 -9 -9 -9 -10 -10 -11 -11 -11 -11 -11 -12 -12 -13 -13 -13 -13 -13 -13 -14 -14 -15 -15 -17 -17 -16 -15 -15 -16 -16 -17 -17
-8 -9 -7 -8 -7 -7 -9 -8 -8 -10 -12 -11 -11 -12 -12 -10 -12 -12 -10 -10 -10 -10 -10 -10 -10 -10 -11 -11 -11 -11 -11 -11 -12 -13 -13 -13 -13 -13 -13 -13 -13 -14 -14 -16 -17 -17 -17 -17 -17 -16 -16 -17 -17 -17
-8 -7 -9 -7 -6 -7 -13 -13 -11 -11 -12 -8 -8 -10 -9 -11 -12 -10 -10 -10 -11 -11 -11 -12 -12 -12 -12 -12 -12 -12 -12 -12 -12 -13 -14 -15 -16 -15 -15 -15 -17 -17 -17 -18 -17 -17 -18 -19 -17 -17 -17 -18 -18 -18
-8 -8 -7 -10 -7 -7 -7 -10 -10 -7 -7 -7 -10 -11 -10 -10 -10 -11 -11 -11 -11 -12 -12 -12 -12 -11 -10 -11 -11 -12 -13 -14 -14 -14 -14 -16 -17 -17 -17 -17 -20 -26 -28 -27 -20 -19 -19 -19 -19 -18 -18 -18 -19 -20
-8 -8 -9 -10 -13 -12 -9 -8 -9 -8 -8 -8 -8 -10 -10 -10 -11 -11 -11 -11 -11 -11 -12 -12 -12 -12 -12 -12 -12 -13 -13 -14 -14 -14 -15 -16 -16 -16 -17 -19 -27 -29 -29 -29 -27 -26 -23 -22 -22 -21 -20 -20 -22 -25
-9 -9 -10 -11 -12 -11 -11 -10 -11 -10 -10 -9 -9 -9 -10 -10 -10 -10 -11 -12 -12 -11 -11 -12 -11 -12 -12 -12 -13 -13 -14 -15 -15 -15 -16 -16 -16 -16 -18 -28 -30 -29 -29 -29 -28 -28 -28 -27 -27 -27 -28 -29 -28 -26
-10 -10 -12 -15 -13 -13 -12 -12 -13 -13 -13 -12 -12 -12 -12 -12 -12 -12 -11 -12 -12 -11 -11 -12 -13 -13 -12 -13 -14 -15 -16 -16 -16 -16 -16 -17 -17 -24 -30 -30 -30 -30 -31 -32 -32 -31 -31 -29 -27 -26 -25 -25 -25 -25
-12 -11 -12 -13 -14 -14 -14 -14 -14 -13 -14 -13 -14 -13 -13 -13 -13 -13 -13 -13 -12 -12 -12 -12 -13 -13 -13 -14 -15 -16 -16 -17 -17 -17 -17 -20 -27 -30 -30 -30 -31 -33 -32 -30 -27 -26 -26 -25 -25 -25 -25 -24 -23 -23

GFSWCAN_850_dewp_144.txt.gz
Dewpoint
-2 -0 2 3 1 2 3 3 4 3 3 2 1 0 -0 0 1 -2 -5 -7 -5 -3 -3 -5 -6 -6 -6 -7 -5 -6 -8 -6 -5 -4 -2 -4 -4 -5 -4 -5 -1 -1 -0 -1 -2 -0 -1 -5 -4 -2 -1 -3 -2 -2
-1 -1 -0 3 3 3 3 3 3 2 2 1 0 -0 -0 -0 -3 -5 -7 -8 -8 -6 -4 -7 -8 -6 -7 -7 -7 -7 -8 -8 -4 -2 -2 -3 -3 -3 -5 -3 -3 0 1 -0 -2 -1 -2 -2 -2 -2 -2 -2 -3 -3
-2 -1 -1 -0 1 2 2 2 1 1 -0 -0 -1 0 -0 -0 -2 -6 -8 -8 -9 -3 -4 -5 -4 -8 -9 -10 -9 -9 -5 -5 -6 -5 -3 -4 -3 -6 -3 -6 -2 -2 -3 -0 -1 -2 -3 -2 -2 -2 -2 -2 -3 -4
-2 -2 -1 -1 -1 -0 -0 -0 -0 -1 -1 -0 -0 -0 -1 -2 -5 -8 -9 -7 -8 -5 -2 -4 -5 -7 -8 -9 -10 -11 -11 -9 -9 -8 -8 -7 -6 -6 -8 -8 -6 -3 -3 -2 -2 -2 -2 -2 -2 -2 -2 -3 -4 -5
-3 -3 -2 -2 -2 -1 -1 -1 -1 -0 -0 -0 -1 -1 -1 -3 -7 -8 -9 -9 -8 -6 -4 -4 -6 -6 -8 -9 -10 -12 -13 -9 -10 -7 -4 -7 -9 -8 -8 -9 -7 -6 -4 -2 -3 -1 -1 -2 -2 -2 -2 -4 -6 -7
-3 -3 -3 -3 -3 -3 -2 -2 -2 -1 -1 -1 -1 -1 -4 -6 -8 -9 -8 -9 -9 -7 -5 -3 -4 -4 -5 -8 -9 -9 -6 -6 -8 -8 -8 -8 -5 -8 -7 -10 -9 -8 -5 -3 -3 -3 -2 -3 -4 -5 -5 -6 -7 -9
-4 -3 -4 -3 -2 -2 -2 -2 -1 -1 -2 -2 -4 -5 -7 -8 -10 -11 -8 -7 -9 -11 -6 -4 -6 -5 -6 -6 -4 -5 -5 -6 -7 -6 -6 -8 -8 -6 -5 -7 -6 -4 -4 -3 -3 -4 -5 -5 -6 -7 -8 -9 -11 -11
-6 -6 -3 -3 -2 -2 -2 -3 -4 -4 -4 -5 -6 -7 -8 -9 -10 -8 -8 -9 -10 -9 -4 -2 -4 -6 -5 -5 -5 -4 -6 -6 -4 -5 -4 -6 -4 -4 -4 -8 -5 -3 -4 -3 -4 -4 -5 -6 -8 -9 -11 -11 -12 -13
-6 -8 -4 -3 -4 -5 -6 -7 -7 -6 -5 -6 -7 -8 -9 -10 -8 -9 -10 -13 -13 -8 -2 -2 -3 -3 -4 -3 -3 -3 -3 -2 -3 -3 -4 -5 -4 -3 -5 -7 -5 -4 -4 -6 -6 -7 -7 -8 -10 -11 -12 -12 -13 -13
-6 -9 -5 -4 -5 -6 -6 -6 -7 -7 -6 -7 -7 -9 -9 -9 -12 -13 -14 -15 -14 -6 -3 -3 -4 -2 -5 -4 -3 -3 -3 -3 -2 -4 -4 -3 -4 -4 -5 -4 -4 -5 -6 -6 -6 -7 -8 -9 -10 -11 -12 -13 -13 -13
-4 -9 -7 -3 -4 -5 -5 -7 -9 -10 -11 -11 -12 -3 -9 -11 -14 -14 -6 -4 -6 -2 -4 -4 -5 -4 -3 -2 -2 -3 -2 -3 -2 -3 -3 -3 -3 -4 -5 -6 -6 -7 -6 -6 -7 -9 -10 -10 -11 -11 -12 -12 -13 -13
-5 -7 -8 -6 -5 -5 -5 -8 -9 -11 -15 -12 -9 -10 -12 -12 -10 -5 -4 -5 -7 -5 -4 -5 -5 -4 -2 -2 -3 -3 -3 -2 -2 -3 -2 -2 -3 -6 -7 -7 -7 -6 -6 -6 -9 -11 -11 -11 -12 -12 -11 -12 -13 -15
-5 -8 -7 -7 -7 -7 -6 -7 -11 -12 -12 -13 -16 -13 -7 -8 -7 -8 -5 -4 -3 -4 -4 -4 -2 -2 -3 -2 -2 -1 -2 -2 -4 -3 -4 -4 -5 -7 -7 -5 -7 -9 -10 -11 -11 -11 -11 -12 -13 -12 -13 -15 -15 -15
-7 -7 -8 -8 -7 -7 -10 -9 -10 -13 -14 -13 -7 -7 -6 -6 -6 -6 -7 -5 -4 -4 -4 -3 -3 -3 -3 -2 -3 -3 -3 -4 -2 -2 -4 -3 -5 -7 -7 -6 -9 -10 -11 -10 -10 -11 -12 -13 -14 -14 -15 -15 -15 -15
-3 -4 -7 -8 -8 -9 -8 -9 -11 -14 -10 -6 -6 -4 -4 -5 -4 -4 -3 -3 -3 -3 -4 -4 -3 -3 -2 -2 -4 -4 -2 -3 -4 -4 -2 -3 -5 -6 -6 -7 -9 -9 -9 -8 -10 -12 -13 -13 -14 -14 -15 -16 -15 -15
-3 -3 -5 -8 -8 -8 -10 -11 -14 -11 -6 -5 -5 -5 -3 -3 -3 -3 -3 -3 -3 -4 -4 -4 -2 -2 -2 -3 -2 -4 -5 -5 -3 -3 -3 -4 -5 -6 -6 -7 -8 -7 -7 -9 -11 -13 -13 -14 -14 -14 -15 -16 -16 -16
-4 -3 -5 -7 -8 -8 -9 -11 -9 -7 -5 -4 -4 -4 -3 -3 -3 -3 -3 -3 -4 -1 -1 -4 -4 -3 -4 -3 -3 -5 -4 -3 -3 -3 -4 -4 -5 -6 -6 -7 -7 -7 -8 -10 -12 -13 -13 -14 -14 -14 -13 -16 -16 -16
-4 -4 -6 -7 -8 -10 -11 -9 -8 -5 -5 -4 -4 -5 -5 -5 -4 -4 -3 -3 -2 -2 -3 -3 -4 -2 -3 -3 -3 -3 -4 -5 -5 -5 -5 -6 -5 -6 -6 -7 -7 -8 -9 -11 -12 -12 -13 -14 -13 -13 -15 -16 -15 -15
-5 -5 -5 -7 -9 -10 -9 -10 -7 -5 -5 -5 -5 -5 -5 -5 -4 -4 -3 -3 -4 -3 -2 -3 -1 -3 -2 -3 -2 -3 -4 -4 -5 -6 -6 -6 -6 -6 -7 -7 -8 -9 -11 -11 -11 -11 -12 -14 -13 -13 -14 -14 -14 -14
-5 -3 -6 -8 -11 -10 -8 -7 -7 -5 -5 -5 -6 -6 -6 -6 -5 -4 -3 -3 -4 -4 -3 -2 -2 -2 -2 -4 -5 -5 -5 -5 -6 -6 -7 -7 -7 -7 -8 -9 -9 -10 -11 -11 -12 -12 -13 -13 -14 -14 -14 -14 -14 -14
-4 -5 -6 -9 -10 -9 -7 -5 -5 -5 -5 -6 -7 -6 -6 -6 -6 -5 -6 -7 -8 -5 -5 -4 -6 -6 -6 -5 -6 -6 -6 -5 -5 -5 -6 -8 -7 -9 -9 -10 -10 -11 -11 -12 -12 -14 -13 -13 -14 -14 -14 -15 -15 -15
-4 -5 -9 -10 -8 -7 -6 -7 -6 -6 -5 -5 -6 -7 -6 -5 -5 -6 -8 -6 -5 -5 -10 -10 -10 -9 -7 -7 -7 -6 -6 -6 -6 -6 -7 -7 -8 -9 -10 -10 -11 -11 -11 -12 -12 -13 -13 -15 -16 -17 -15 -15 -17 -16
-6 -8 -8 -8 -8 -7 -6 -7 -6 -7 -6 -5 -6 -7 -6 -6 -6 -8 -6 -6 -7 -11 -11 -10 -10 -9 -9 -8 -7 -6 -6 -6 -6 -6 -7 -8 -9 -10 -10 -11 -11 -11 -12 -14 -13 -13 -14 -15 -16 -16 -17 -17 -15 -16
-5 -6 -6 -7 -7 -6 -6 -6 -7 -7 -7 -7 -7 -7 -7 -7 -8 -7 -6 -7 -8 -10 -11 -10 -9 -8 -7 -7 -7 -7 -7 -7 -7 -7 -8 -8 -10 -10 -11 -11 -12 -12 -12 -14 -14 -14 -15 -15 -15 -15 -16 -16 -17 -16
-5 -6 -7 -7 -7 -7 -7 -7 -7 -8 -7 -8 -7 -7 -7 -7 -6 -7 -7 -8 -10 -10 -10 -10 -9 -8 -7 -8 -8 -8 -8 -9 -9 -9 -9 -10 -10 -11 -12 -13 -14 -16 -16 -15 -15 -15 -17 -16 -15 -15 -16 -15 -16 -17
-6 -7 -8 -7 -7 -7 -7 -7 -7 -7 -8 -7 -7 -8 -7 -7 -6 -7 -9 -8 -10 -9 -9 -10 -9 -9 -8 -8 -9 -9 -9 -10 -10 -10 -10 -10 -11 -12 -14 -15 -15 -15 -15 -15 -16 -17 -17 -17 -16 -16 -16 -17 -17 -17
-7 -7 -7 -9 -8 -8 -7 -8 -8 -7 -7 -7 -7 -7 -7 -6 -6 -8 -10 -10 -10 -10 -10 -9 -9 -9 -8 -9 -9 -9 -10 -11 -10 -11 -11 -13 -14 -14 -14 -13 -13 -14 -15 -16 -17 -18 -19 -21 -19 -18 -17 -18 -20 -21
-7 -7 -7 -7 -7 -8 -7 -7 -7 -7 -7 -8 -8 -7 -7 -7 -7 -8 -10 -10 -10 -11 -10 -10 -9 -9 -9 -10 -10 -10 -11 -11 -12 -12 -13 -13 -13 -13 -14 -14 -14 -15 -16 -17 -19 -21 -24 -24 -23 -21 -19 -20 -22 -25
-7 -8 -7 -8 -8 -7 -7 -7 -7 -8 -8 -8 -6 -7 -7 -9 -10 -10 -10 -10 -9 -10 -11 -11 -11 -11 -11 -11 -11 -11 -11 -12 -12 -12 -12 -13 -13 -14 -14 -15 -16 -17 -19 -23 -26 -24 -24 -25 -23 -22 -22 -23 -25 -26
-8 -8 -8 -9 -8 -7 -8 -10 -9 -9 -9 -9 -9 -9 -10 -10 -10 -10 -11 -10 -10 -10 -10 -11 -12 -12 -12 -12 -11 -11 -12 -12 -12 -13 -14 -14 -15 -16 -17 -18 -19 -23 -28 -28 -27 -26 -27 -25 -25 -24 -25 -26 -27 -26
-9 -9 -9 -9 -9 -11 -11 -10 -9 -9 -8 -8 -8 -8 -8 -9 -9 -9 -9 -9 -10 -10 -10 -11 -11 -12 -12 -12 -12 -12 -12 -12 -13 -13 -14 -15 -17 -18 -18 -18 -24 -29 -29 -29 -28 -28 -28 -28 -27 -27 -26 -26 -25 -25
-10 -9 -9 -9 -11 -12 -11 -11 -11 -10 -11 -10 -9 -9 -10 -10 -9 -10 -10 -10 -10 -10 -10 -10 -11 -11 -12 -12 -11 -11 -11 -12 -13 -14 -15 -16 -17 -17 -17 -21 -29 -30 -30 -30 -30 -30 -28 -27 -26 -26 -25 -25 -24 -23
-11 -11 -12 -12 -12 -12 -12 -12 -12 -11 -12 -12 -12 -13 -13 -11 -11 -12 -13 -12 -12 -12 -11 -11 -10 -11 -11 -11 -11 -11 -12 -13 -13 -14 -15 -17 -17 -17 -20 -28 -30 -30 -31 -31 -29 -27 -27 -26 -25 -25 -23 -23 -26 -27

GFSWCAN_850_dewp_147.txt.gz
Dewpoint
-2 -2 -1 -1 -1 -1 -1 -1 -0 -1 -0 -0 -0 -0 -0 -1 1 1 1 1 1 0 -2 -1 -6 -6 -6 -6 -3 -5 -6 -7 -5 -4 -0 -7 -7 -7 -6 -5 -0 -0 -0 -1 -2 0 -1 -6 -5 -3 -1 -2 -3 -3
-2 -1 1 1 4 3 4 4 3 3 2 0 0 0 0 0 1 1 1 1 0 -1 -2 -2 -3 -3 -6 -7 -7 -7 -8 -9 -6 -2 -3 -7 -3 -5 -6 -3 -4 1 2 -1 -3 -1 -4 -5 -2 -1 -2 -3 -3 -3
-1 -0 2 2 2 2 5 4 3 1 2 1 0 0 1 1 1 1 0 0 -1 -2 -3 -4 -4 -6 -5 -5 -6 -9 -9 -7 -5 -6 -4 -5 -4 -5 -4 -6 -2 -3 -4 0 -1 -2 -3 -2 -2 -2 -2 -2 -3 -4
-1 -0 1 3 3 3 4 4 4 3 2 1 1 1 0 0 1 -0 -1 -2 -3 -3 -1 -3 -3 -6 -6 -5 -5 -7 -7 -6 -5 -7 -7 -5 -6 -7 -8 -9 -7 -2 -4 -2 -1 -2 -2 -2 -2 -2 -2 -3 -4 -5
-2 -1 -0 2 2 3 3 2 2 1 1 1 0 0 0 -1 -2 -2 -3 -3 -5 -5 -2 -3 -4 -4 -4 -6 -10 -7 -6 -7 -10 -9 -3 -8 -11 -11 -11 -12 -8 -6 -5 -1 -2 0 -0 -2 -2 -2 -2 -4 -5 -6
-2 -1 -1 0 1 1 1 1 0 -0 -0 -0 -0 -0 -0 -2 -5 -5 -4 -5 -5 -6 -4 -2 -4 -3 -4 -5 -6 -7 -8 -10 -11 -8 -10 -10 -6 -8 -9 -12 -11 -11 -8 -5 -6 -2 -2 -2 -2 -3 -4 -5 -7 -9
-2 -2 -2 -1 -1 -1 -1 -0 -1 -0 -0 -0 -2 -3 -3 -4 -5 -7 -5 -3 -4 -6 -4 -3 -5 -4 -4 -6 -6 -7 -7 -7 -9 -8 -9 -11 -11 -9 -7 -10 -10 -9 -7 -6 -4 -3 -3 -4 -5 -5 -6 -7 -10 -11
-2 -2 -1 -1 -1 -1 -1 -0 -0 -0 -0 -1 -3 -6 -6 -7 -8 -6 -6 -7 -5 -4 -4 0 -4 -5 -5 -6 -5 -6 -7 -7 -6 -7 -8 -8 -6 -6 -5 -8 -7 -6 -5 -3 -4 -4 -4 -5 -6 -8 -9 -10 -11 -12
-2 -2 -2 -1 -1 -1 -1 -0 -1 -1 -2 -5 -7 -7 -8 -5 -5 -7 -9 -12 -9 -3 -2 -1 -3 -3 -4 -4 -5 -5 -6 -3 -5 -3 -6 -6 -5 -3 -6 -8 -7 -6 -4 -3 -5 -5 -6 -7 -8 -10 -11 -11 -12 -12
-3 -2 -2 -2 -2 -1 -1 -1 -2 -4 -6 -8 -9 -10 -9 -8 -11 -13 -14 -13 -10 -2 -3 -3 -6 -3 -5 -5 -4 -4 -4 -3 -1 -4 -6 -3 -4 -5 -5 -5 -6 -5 -5 -5 -5 -5 -6 -8 -9 -10 -11 -12 -12 -13
-3 -4 -4 -4 -3 -3 -3 -4 -5 -8 -8 -9 -7 -3 -10 -12 -7 -5 -4 -1 -2 -1 -5 -6 -6 -5 -6 -3 -2 -3 -0 -3 -1 -3 -3 -3 -3 -4 -5 -5 -5 -5 -5 -4 -5 -6 -7 -8 -10 -10 -11 -12 -12 -12
-3 -5 -6 -6 -6 -6 -6 -7 -7 -7 -9 -11 -8 -10 -11 -6 -5 -1 -2 -4 -6 -4 -6 -5 -6 -5 -4 -4 -3 -2 -3 -1 -2 -4 -2 -2 -2 -4 -5 -6 -6 -6 -7 -7 -8 -8 -8 -10 -11 -11 -11 -11 -11 -12
-4 -4 -5 -6 -8 -9 -10 -11 -12 -14 -11 -10 -11 -14 -6 -6 -2 2 -2 -4 -2 -4 -5 -5 -1 -3 -2 -3 -2 -2 -1 -2 -5 -2 -4 -4 -4 -5 -6 -5 -5 -6 -7 -9 -10 -10 -10 -11 -11 -11 -11 -13 -14 -14
-7 -6 -6 -6 -7 -10 -11 -10 -9 -8 -8 -7 -4 -5 -2 -2 -5 -5 -6 -4 -3 -4 -4 -4 -3 -3 -3 -2 -2 -1 -4 -4 -2 -2 -5 -4 -5 -6 -5 -6 -8 -9 -9 -10 -10 -10 -10 -12 -13 -14 -15 -15 -15 -14
-7 -7 -7 -8 -9 -10 -11 -13 -16 -18 -4 -4 -5 -3 -4 -5 -4 -3 -3 -3 -4 -4 -5 -4 -3 -3 -2 -1 -4 -3 -1 -2 -4 -4 -1 -3 -5 -6 -5 -6 -8 -8 -10 -9 -9 -10 -12 -13 -14 -15 -15 -16 -16 -16
-8 -8 -8 -8 -9 -10 -13 -14 -15 -11 -3 -4 -4 -4 -3 -4 -3 -2 -1 -2 -3 -4 -5 -5 -1 0 -1 -2 -1 -2 -4 -5 -3 -1 -2 -4 -5 -5 -5 -7 -7 -9 -7 -8 -10 -12 -13 -14 -14 -14 -15 -16 -16 -16
-6 -6 -7 -8 -10 -13 -15 -15 -9 -5 -4 -4 -3 -3 -3 -3 -2 -2 -2 -2 -1 -2 1 -3 -1 -1 -4 -3 -3 -6 -3 -1 -2 -2 -2 -3 -4 -4 -6 -6 -7 -7 -7 -9 -11 -12 -13 -13 -14 -13 -12 -13 -13 -15
-7 -8 -8 -9 -12 -13 -14 -8 -4 -5 -4 -3 -4 -3 -4 -3 -3 -3 -3 -1 -1 -2 -3 -3 -4 -3 -2 -3 -2 -2 -2 -3 -3 -3 -4 -4 -4 -6 -6 -6 -7 -7 -8 -10 -11 -11 -13 -13 -12 -11 -13 -13 -13 -13
-6 -8 -8 -9 -11 -11 -9 -6 -4 -5 -4 -4 -4 -4 -4 -4 -4 -3 -2 -1 -1 -1 -2 -3 1 -3 -2 -2 -1 -2 -2 -3 -4 -5 -5 -5 -5 -6 -6 -6 -7 -8 -9 -11 -11 -10 -11 -11 -11 -12 -12 -12 -12 -13
-7 -8 -8 -11 -13 -6 -5 -4 -5 -5 -4 -4 -4 -4 -4 -5 -4 -3 -3 -2 -2 -1 -0 -0 -1 -1 -1 -2 -1 -1 -2 -3 -5 -6 -6 -6 -6 -6 -7 -8 -9 -10 -10 -10 -11 -11 -11 -12 -12 -12 -12 -12 -13 -13
-7 -8 -11 -13 -10 -7 -5 -4 -4 -5 -5 -4 -5 -4 -4 -4 -3 -2 -3 -6 -4 -3 -3 -1 -2 -6 -5 -6 -6 -4 -4 -4 -3 -4 -5 -7 -7 -8 -8 -8 -9 -9 -10 -10 -10 -11 -11 -11 -12 -12 -13 -13 -14 -14
-8 -10 -12 -11 -7 -6 -5 -5 -5 -5 -5 -5 -5 -6 -4 -3 -3 -3 -6 -4 -3 -2 -3 -3 -5 -8 -7 -7 -7 -6 -6 -4 -4 -5 -5 -7 -7 -8 -8 -9 -9 -9 -10 -10 -10 -11 -11 -12 -13 -13 -13 -14 -15 -14
-9 -11 -9 -6 -7 -5 -6 -5 -5 -6 -4 -5 -6 -5 -4 -4 -5 -8 -4 -5 -3 -9 -10 -9 -10 -10 -9 -9 -8 -7 -6 -6 -5 -6 -7 -7 -7 -8 -9 -9 -9 -10 -10 -10 -11 -11 -12 -13 -15 -14 -14 -14 -14 -14
-9 -9 -8 -5 -6 -5 -5 -6 -7 -7 -6 -5 -6 -5 -5 -5 -7 -6 -5 -5 -4 -10 -10 -11 -9 -8 -8 -7 -7 -7 -6 -6 -7 -7 -7 -8 -8 -9 -9 -10 -10 -10 -10 -11 -11 -12 -13 -13 -14 -14 -14 -14 -14 -14
-6 -6 -5 -6 -6 -6 -5 -5 -7 -7 -6 -6 -6 -5 -5 -6 -4 -6 -5 -6 -5 -6 -6 -9 -8 -6 -6 -6 -7 -7 -7 -8 -8 -8 -8 -8 -9 -10 -10 -10 -10 -11 -11 -12 -12 -12 -13 -14 -14 -14 -14 -14 -14 -15
-5 -5 -6 -6 -6 -6 -6 -6 -6 -6 -6 -6 -6 -7 -6 -5 -5 -7 -10 -5 -4 -5 -6 -7 -7 -7 -6 -6 -7 -8 -8 -8 -8 -9 -9 -9 -10 -10 -10 -10 -11 -12 -12 -12 -12 -13 -13 -14 -14 -14 -15 -16 -17 -17
-6 -6 -7 -8 -8 -7 -6 -7 -7 -6 -6 -6 -6 -6 -5 -6 -7 -8 -6 -9 -6 -9 -8 -8 -7 -7 -7 -7 -8 -8 -9 -9 -9 -9 -10 -10 -10 -10 -10 -11 -11 -11 -13 -14 -13 -13 -13 -14 -14 -15 -15 -15 -16 -18
-6 -7 -6 -7 -7 -7 -6 -6 -5 -6 -6 -8 -7 -5 -6 -8 -9 -5 -5 -9 -10 -10 -9 -9 -8 -8 -8 -9 -9 -9 -9 -10 -10 -10 -11 -11 -12 -12 -12 -12 -12 -13 -15 -16 -17 -18 -15 -14 -15 -15 -15 -16 -17 -26
-6 -6 -7 -6 -6 -6 -6 -6 -6 -7 -7 -7 -5 -6 -6 -6 -9 -9 -10 -9 -9 -10 -10 -10 -10 -10 -10 -10 -10 -10 -10 -11 -11 -12 -12 -12 -13 -13 -14 -14 -14 -15 -16 -17 -21 -25 -25 -22 -16 -16 -16 -17 -22 -27
-6 -6 -6 -6 -6 -6 -6 -7 -6 -8 -9 -7 -7 -8 -9 -8 -10 -10 -10 -10 -10 -10 -9 -9 -10 -11 -11 -11 -11 -11 -11 -11 -11 -11 -11 -10 -12 -12 -14 -15 -15 -17 -18 -21 -24 -28 -28 -27 -25 -25 -25 -25 -23 -22
-7 -6 -6 -6 -6 -7 -9 -10 -10 -9 -9 -8 -9 -7 -6 -7 -9 -9 -10 -10 -10 -10 -10 -9 -10 -10 -10 -11 -11 -11 -11 -12 -12 -12 -12 -11 -13 -15 -16 -17 -18 -20 -19 -17 -21 -27 -28 -26 -18 -19 -23 -26 -26 -25
-7 -6 -7 -7 -7 -10 -10 -9 -8 -7 -8 -7 -6 -9 -8 -8 -6 -7 -9 -9 -9 -9 -10 -10 -10 -10 -10 -11 -11 -11 -11 -12 -12 -13 -13 -14 -15 -17 -18 -18 -20 -26 -26 -23 -23 -26 -29 -26 -24 -23 -25 -25 -24 -24
-8 -8 -8 -8 -9 -8 -9 -8 -9 -8 -8 -8 -8 -9 -9 -8 -7 -9 -11 -12 -12 -11 -11 -12 -11 -11 -10 -11 -11 -12 -11 -11 -11 -12 -14 -15 -16 -17 -17 -18 -23 -29 -29 -29 -30 -29 -28 -27 -26 -26 -25 -23 -25 -27

GFSWCAN_850_dewp_153.txt.gz
Dewpoint
-5 -5 -5 -4 -3 -3 -3 -4 -5 -5 -5 -8 -9 -6 -5 -4 -3 -2 -1 0 0 2 1 2 2 2 2 -1 -0 -3 -2 -3 -2 -0 -0 -2 -1 -4 -3 -3 -3 -3 -2 -2 -1 -2 -2 -5 -5 -3 -2 -2 -3 -3
-5 -4 -4 -3 -2 -3 -2 -3 -3 -4 -3 -5 -8 -5 -6 -5 -5 -2 0 -0 -1 2 1 2 3 2 2 -1 -3 -4 -3 -4 -4 -1 -2 -1 -1 -3 -3 0 -3 -2 -3 -2 -3 -1 -0 -2 -1 -2 -2 -3 -3 -3
-3 -3 -3 -2 -2 -2 -2 -2 -2 -3 -3 -6 -6 -5 -4 -5 -5 -2 -0 0 1 0 -0 1 1 2 1 -1 -4 -4 -5 -6 -6 -5 -2 -1 -3 -3 -2 -0 -1 -2 -1 -2 -2 -2 -1 -1 -2 -2 -2 -3 -3 -4
-3 -3 -3 -2 -2 -2 -2 -3 -2 -2 -2 -5 -5 -5 -5 -5 -6 -2 -1 -1 1 1 0 0 1 -0 -2 -2 -4 -5 -6 -7 -7 -4 -2 -2 -2 -6 -4 -2 -1 -2 -1 -1 -1 -1 -1 -2 -2 -3 -3 -3 -4 -5
-2 -2 -2 -2 -2 -2 -2 -2 -2 -2 -2 -3 -3 -6 -5 -4 -5 -2 -1 -0 0 0 0 0 0 -0 -2 -3 -5 -6 -6 -6 -5 -5 -3 -3 -8 -6 -8 -5 -1 -4 -2 -1 -1 -3 -2 -1 -2 -3 -3 -4 -4 -5
-1 0 1 1 -0 -1 -1 -2 -2 -2 -2 -2 -3 -4 -4 -3 -1 -0 0 -1 1 -1 -0 0 0 -0 -3 -4 -5 -6 -7 -5 -9 -9 -5 -6 -6 -5 -3 -8 -7 -5 -4 -4 -1 -2 -2 -2 -2 -3 -4 -4 -6 -8
1 3 2 2 1 0 -1 -1 -1 -2 -2 -2 -3 -3 -2 -1 -0 -0 -0 0 0 -0 -1 -0 -0 -3 -5 -7 -6 -6 -7 -8 -9 -7 -6 -8 -11 -6 -4 -5 -8 -7 -5 -2 -2 -2 -2 -3 -2 -3 -4 -5 -9 -10
2 3 3 3 3 3 1 -0 -1 -1 -2 -2 -2 -1 -0 -1 -1 0 -1 -1 -1 -2 -3 -0 -1 -4 -6 -6 -6 -6 -6 -6 -6 -7 -7 -5 -8 -5 -2 -7 -9 -5 -4 -4 -3 -4 -3 -4 -4 -5 -7 -10 -11 -11
2 3 4 4 4 2 2 -0 -1 -2 -1 -1 -1 -1 -0 -0 -1 -1 0 0 -2 -5 -3 -2 -1 -1 -5 -6 -5 -5 -4 -2 -4 -2 -3 -4 -3 -2 -5 -7 -4 -4 -4 -4 -3 -4 -5 -6 -7 -9 -10 -10 -11 -11
1 2 3 3 3 1 0 -1 -1 -1 -1 -1 -0 -0 -1 -0 -0 0 -1 -2 -5 -3 -3 -2 -4 -1 -4 -4 -2 -1 -3 -2 -2 -2 -7 -2 -1 -6 -6 -6 -5 -5 -4 -5 -5 -5 -7 -8 -9 -10 -10 -10 -11 -12
-1 1 1 1 1 0 0 0 0 0 0 -0 -2 -2 -1 -0 -1 -3 -2 -1 -1 -1 -4 -4 -4 -3 -4 -2 -2 -2 -2 -2 -2 -2 -2 -1 -1 -4 -5 -5 -5 -4 -4 -5 -5 -5 -6 -7 -9 -10 -11 -11 -11 -11
-1 -1 -0 0 0 0 0 0 0 -0 -1 -5 -2 -1 -1 -3 -2 -2 -3 -3 -3 -2 -4 -3 -3 -4 -4 -3 -2 -3 -2 -2 0 -3 -3 -1 -2 -4 -4 -4 -4 -4 -4 -4 -5 -6 -7 -8 -9 -10 -9 -8 -10 -12
-2 -2 -1 -1 -1 -1 -1 -1 -3 -5 -5 -4 -5 -7 -6 -3 -3 -5 -3 -2 -2 -3 -4 -4 -2 -3 -2 -3 -1 -3 -3 -3 -4 -4 -2 -1 -4 -4 -4 -5 -6 -6 -7 -7 -7 -7 -8 -8 -7 -8 -9 -10 -13 -14
-2 -2 -1 -2 -2 -2 -2 -3 -5 -5 -8 -9 -3 -4 -3 -4 -1 0 -2 -2 -3 -4 -3 -3 -1 -1 -2 -2 -2 -5 -2 -3 -4 -3 -0 -2 -4 -5 -5 -5 -6 -6 -7 -7 -8 -8 -9 -9 -9 -10 -13 -15 -15 -16
-2 -3 -5 -5 -6 -6 -5 -4 -6 -11 -7 -5 -5 -3 -4 -3 -2 -1 -2 -3 -4 -3 -3 -2 -2 -2 -3 -3 -3 -3 -4 -4 -3 -3 -3 -4 -5 -5 -5 -5 -6 -8 -9 -9 -9 -9 -10 -11 -12 -13 -15 -15 -16 -16
-9 -8 -9 -8 -8 -10 -11 -13 -14 -9 -5 -4 -3 -2 -1 -0 0 -1 -2 -2 -3 -3 -3 -3 -2 -3 -3 -3 -3 -4 -2 -3 -3 -3 -3 -5 -5 -5 -5 -6 -7 -8 -9 -9 -9 -9 -11 -12 -13 -14 -15 -16 -16 -17
-12 -8 -12 -12 -8 -12 -13 -17 -7 -4 -3 -3 -3 -3 -2 -2 -1 -1 -0 -0 -2 -4 -3 -2 -5 -2 -3 -3 -3 -2 -2 0 -2 -3 -4 -5 -4 -5 -6 -7 -7 -8 -9 -9 -8 -10 -11 -13 -14 -14 -14 -16 -15 -15
-11 -12 -13 -11 -14 -15 -11 -6 -5 -5 -4 -3 -3 -3 -2 -2 -1 -1 -0 -1 -3 -2 -3 -3 -4 -3 -5 -3 -3 -1 -1 -1 -3 -4 -4 -4 -5 -5 -6 -7 -7 -8 -8 -8 -9 -11 -12 -13 -13 -13 -14 -15 -14 -13
-13 -14 -14 -15 -14 -10 -4 -4 -6 -4 -4 -4 -3 -3 -2 -2 -1 -1 -1 -1 -2 -2 -3 -3 -3 -3 -3 -0 -2 -2 -2 -3 -3 -3 -4 -4 -4 -5 -6 -7 -7 -7 -8 -8 -9 -10 -13 -12 -11 -11 -12 -12 -11 -13
-14 -15 -16 -16 -15 -8 -4 -5 -5 -4 -3 -4 -4 -3 -3 -2 -3 -4 -4 -2 -2 -2 -3 -3 -2 -3 -2 -2 -2 -2 -3 -3 -4 -4 -5 -5 -5 -5 -6 -6 -7 -8 -9 -9 -10 -10 -11 -10 -10 -11 -11 -12 -12 -12
-15 -16 -17 -17 -10 -5 -4 -4 -3 -4 -4 -3 -3 -2 -2 -3 -3 -4 -5 -3 -3 -2 -4 -4 -4 -3 -3 -3 -3 -3 -3 -4 -5 -5 -5 -5 -6 -6 -6 -7 -7 -8 -9 -9 -9 -10 -11 -12 -12 -13 -13 -13 -13 -13
-13 -14 -14 -13 -9 -6 -5 -5 -4 -4 -3 -3 -2 -3 -3 -3 -3 -8 -4 -3 -4 -4 -4 -4 -5 -4 -4 -4 -4 -4 -4 -4 -4 -4 -5 -6 -6 -6 -7 -7 -8 -9 -9 -10 -10 -11 -11 -10 -11 -12 -13 -12 -13 -14
-13 -14 -12 -10 -9 -7 -6 -6 -6 -5 -4 -4 -5 -4 -4 -4 -8 -6 -4 -3 -5 -5 -5 -5 -5 -5 -5 -5 -4 -4 -4 -4 -4 -5 -5 -6 -6 -6 -7 -7 -8 -9 -9 -9 -10 -10 -11 -11 -12 -13 -13 -13 -14 -14
-12 -10 -9 -6 -6 -5 -6 -6 -6 -5 -5 -5 -5 -5 -4 -5 -6 -5 -5 -3 -6 -8 -9 -8 -8 -8 -8 -7 -6 -5 -5 -5 -5 -5 -6 -6 -6 -7 -7 -8 -8 -9 -9 -10 -10 -10 -11 -11 -12 -13 -14 -14 -14 -13
-9 -6 -6 -6 -5 -5 -6 -6 -6 -5 -6 -6 -6 -6 -6 -5 -6 -7 -6 -3 -5 -5 -5 -9 -6 -5 -5 -6 -6 -7 -6 -6 -6 -6 -6 -6 -7 -7 -7 -8 -8 -9 -9 -9 -10 -11 -11 -12 -13 -14 -14 -14 -13 -14
-7 -7 -7 -5 -6 -6 -5 -6 -7 -7 -6 -6 -6 -5 -4 -7 -8 -7 -5 -3 -4 -4 -5 -6 -6 -6 -6 -6 -6 -7 -7 -7 -7 -7 -7 -7 -7 -7 -8 -9 -9 -9 -9 -10 -11 -11 -12 -13 -13 -13 -13 -14 -14 -14
-7 -7 -7 -7 -7 -6 -6 -7 -7 -6 -7 -7 -7 -7 -8 -9 -8 -5 -3 -4 -5 -7 -8 -8 -7 -7 -7 -7 -7 -7 -7 -7 -7 -8 -8 -8 -8 -8 -9 -9 -10 -10 -10 -11 -11 -12 -13 -13 -13 -13 -13 -14 -15 -16
-7 -6 -9 -5 -5 -5 -7 -7 -7 -7 -6 -6 -6 -7 -9 -9 -6 -3 -4 -6 -7 -10 -9 -9 -8 -7 -7 -7 -7 -7 -8 -8 -8 -8 -8 -8 -9 -9 -9 -9 -10 -10 -11 -12 -11 -12 -12 -13 -14 -14 -14 -14 -14 -15
-6 -6 -6 -8 -5 -5 -5 -6 -5 -5 -6 -6 -7 -7 -4 -5 -5 -5 -5 -7 -9 -9 -9 -9 -8 -8 -8 -8 -8 -9 -9 -9 -9 -9 -9 -10 -10 -10 -10 -10 -10 -10 -11 -11 -13 -13 -13 -13 -14 -14 -14 -14 -15 -15
-7 -6 -6 -7 -9 -7 -6 -6 -5 -6 -6 -5 -6 -6 -5 -7 -6 -6 -7 -8 -7 -7 -7 -7 -8 -9 -8 -9 -9 -9 -10 -10 -10 -9 -10 -10 -11 -11 -11 -11 -11 -11 -11 -12 -14 -15 -15 -15 -16 -16 -16 -16 -16 -20
-7 -7 -6 -6 -6 -7 -7 -8 -7 -8 -7 -6 -5 -5 -5 -7 -8 -8 -7 -8 -7 -7 -7 -7 -8 -8 -9 -9 -9 -9 -10 -10 -10 -10 -10 -10 -10 -11 -11 -12 -12 -12 -12 -14 -15 -16 -18 -21 -21 -20 -19 -21 -23 -22
-7 -7 -5 -6 -6 -8 -8 -7 -7 -7 -7 -7 -7 -6 -6 -7 -7 -7 -8 -9 -8 -8 -8 -8 -8 -8 -9 -9 -9 -9 -10 -10 -10 -10 -10 -11 -11 -10 -10 -11 -12 -13 -14 -16 -17 -20 -23 -24 -23 -20 -19 -20 -21 -24
-7 -7 -7 -7 -8 -8 -8 -7 -7 -7 -7 -7 -7 -7 -7 -7 -7 -8 -9 -9 -9 -9 -10 -9 -9 -9 -9 -9 -10 -10 -10 -10 -10 -11 -11 -11 -11 -11 -11 -12 -13 -14 -15 -15 -17 -20 -20 -20 -18 -19 -20 -22 -24 -24

GFSWCAN_850_dewp_159.txt.gz
Dewpoint
-6 -7 -8 -7 -7 -7 -7 -6 -6 -6 -7 -6 -5 -5 -4 -5 -4 -3 -2 -2 -2 -1 -2 -1 -0 1 1 -1 2 2 2 2 1 3 2 1 1 -1 -2 -2 -2 -2 -1 -2 -2 -3 -1 -5 -6 -4 -3 -2 -4 -4
-6 -6 -7 -7 -7 -8 -9 -9 -8 -8 -8 -8 -7 -6 -5 -5 -5 -2 -2 -2 -1 -1 -1 -0 -1 -0 -0 -0 1 1 -0 0 0 -1 -0 -1 -1 -2 -3 -1 -4 -3 -3 -2 -3 -2 -3 -1 -4 -4 -4 -4 -3 -4
-8 -9 -8 -8 -8 -8 -9 -8 -8 -7 -7 -7 -8 -8 -9 -9 -7 -3 -2 -1 -1 -0 -1 -1 -3 -2 -1 0 1 2 0 -1 -2 -5 -2 -1 -2 -3 -2 -2 -3 -3 -4 -3 -2 -1 -1 -1 -2 -3 -3 -4 -4 -4
-6 -7 -7 -8 -8 -8 -9 -9 -8 -7 -5 -4 -3 -6 -7 -8 -7 -4 -2 -1 -2 -1 -1 -1 -1 -2 0 1 2 2 1 0 -3 -5 -2 -1 -1 -5 -2 -3 -3 -3 -3 -2 -0 -0 -1 -2 -3 -3 -3 -4 -4 -4
-8 -8 -8 -8 -9 -9 -8 -8 -7 -5 -4 -4 -4 -4 -6 -7 -6 -3 -2 -1 -1 -2 -0 -0 -1 -2 0 2 1 0 1 -1 -4 -3 -1 -1 -6 -6 -5 -3 -2 -2 -3 -2 -2 -1 -2 -2 -3 -3 -4 -5 -5 -6
-9 -8 -7 -7 -6 -6 -6 -4 -4 -4 -3 -3 -3 -4 -7 -7 -6 -3 -2 -1 -1 0 -1 -0 -0 -0 0 0 1 1 -1 -1 -3 -5 -3 -5 -6 -8 -5 -5 -6 -3 -4 -6 -4 -2 -2 -2 -3 -4 -5 -5 -6 -6
-3 -3 -3 -3 -3 -4 -4 -3 -3 -2 -2 -3 -3 -5 -6 -6 -5 -2 -1 -2 -3 -1 -1 -0 -0 -0 1 0 -0 -1 -6 -6 -8 -6 -6 -8 -7 -7 -5 -5 -3 -3 -3 -4 -4 -2 -2 -3 -3 -4 -5 -6 -8 -9
-2 -2 -2 -3 -3 -3 -3 -3 -2 -2 -3 -3 -3 -4 -6 -6 -3 -2 -0 -0 -1 -1 -0 -1 -1 -0 0 -3 -5 -5 -7 -7 -6 -6 -8 -7 -5 -5 -4 -3 -0 -1 -2 -2 -2 -3 -3 -3 -4 -5 -5 -7 -8 -9
1 1 2 -0 -2 -2 -3 -2 -2 -2 -2 -3 -4 -6 -5 -2 -1 -2 -1 -0 -0 -0 -1 -1 -1 -0 -3 -4 -4 -6 -7 -2 -4 -4 -6 -6 -4 -5 -4 -1 -1 -2 -2 -2 -3 -3 -3 -3 -4 -5 -6 -9 -8 -11
-1 -1 -0 -2 -2 -3 -2 -3 -2 -2 -4 -4 -5 -3 -1 -1 -2 -3 -1 -0 -0 -0 -1 -2 -3 -2 -4 -3 -2 -3 -5 -3 -4 -4 -4 -3 -3 -4 -3 -2 -2 -3 -4 -3 -3 -4 -4 -5 -5 -7 -7 -8 -10 -11
-3 -3 -3 -3 -3 -4 -4 -3 -3 -3 -4 -3 -2 -1 -1 -1 -1 -1 -2 -1 -1 -2 -2 -3 -4 -3 -5 -2 -1 -3 -5 -4 -4 -3 -3 -2 -2 -4 -3 -3 -3 -5 -5 -5 -6 -5 -4 -4 -5 -7 -10 -10 -11 -11
-2 -2 -2 -3 -3 -3 -3 -3 -3 -3 -2 -3 -1 -1 -1 -1 -1 -2 -3 -3 -2 -1 -3 -3 -4 -4 -3 -4 -2 -3 -3 -5 -2 -4 -4 -1 -3 -4 -3 -3 -4 -4 -4 -4 -5 -5 -4 -5 -7 -9 -10 -10 -10 -11
-2 -2 -3 -4 -3 -3 -4 -4 -2 -3 -3 -1 -2 -2 -2 -2 -5 -5 -4 -3 -3 -3 -3 -4 -2 -4 -3 -3 -3 -5 -4 -3 -4 -5 -2 -3 -3 -3 -4 -4 -4 -4 -4 -5 -6 -6 -6 -8 -9 -10 -10 -10 -9 -9
-2 -2 -3 -3 -3 -4 -3 -2 -3 -3 -4 -8 -6 -6 -7 -5 -5 -5 -3 -2 -3 -3 -4 -4 -2 -2 -3 -3 -4 -6 -4 -4 -5 -3 -2 -4 -4 -4 -4 -4 -4 -4 -5 -5 -6 -7 -8 -8 -9 -9 -9 -8 -10 -13
-2 -2 -2 -3 -2 -2 -2 -3 -2 -4 -8 -6 -7 -7 -7 -5 -2 -1 -2 -3 -3 -4 -4 -3 -3 -3 -3 -4 -4 -4 -3 -4 -3 -4 -5 -4 -4 -4 -4 -4 -4 -5 -5 -6 -6 -7 -7 -8 -8 -8 -9 -11 -14 -15
-1 -1 -1 -1 -1 -1 -1 -2 -7 -8 -5 -4 -3 -2 -1 -2 -2 -2 -2 -2 -3 -3 -4 -6 -3 -4 -4 -5 -4 -4 -3 -4 -6 -6 -4 -4 -5 -5 -5 -5 -5 -5 -5 -6 -7 -7 -8 -8 -8 -10 -12 -14 -15 -16
-1 -1 -1 -4 -4 -4 -9 -10 -8 -5 -4 -3 -2 -2 -1 -1 -1 -2 -2 -3 -3 -5 -4 -4 -6 -8 -4 -4 -3 -4 -6 -7 -4 -3 -4 -4 -4 -5 -5 -5 -6 -6 -7 -7 -7 -8 -9 -10 -11 -12 -13 -15 -16 -16
-2 -2 -5 -7 -9 -12 -11 -8 -6 -5 -3 -3 -3 -3 -2 -1 -1 -2 -2 -4 -5 -4 -4 -4 -4 -3 -5 -3 -3 -4 -3 -4 -4 -4 -4 -4 -4 -5 -5 -6 -6 -7 -8 -9 -9 -9 -9 -10 -11 -13 -15 -16 -16 -16
-3 -5 -7 -8 -10 -9 -6 -6 -6 -4 -4 -3 -3 -2 -2 -2 -1 -2 -3 -4 -5 -3 -3 -3 -3 -2 -4 -3 -3 -3 -3 -4 -5 -4 -4 -4 -5 -5 -5 -6 -7 -8 -8 -9 -9 -9 -9 -11 -12 -13 -14 -15 -16 -16
-6 -6 -9 -9 -11 -8 -5 -5 -6 -5 -4 -3 -3 -2 -2 -3 -2 -4 -5 -5 -6 -5 -5 -4 -4 -4 -3 -3 -3 -3 -4 -4 -4 -5 -5 -5 -5 -5 -6 -7 -8 -8 -9 -9 -9 -9 -11 -12 -13 -13 -14 -15 -15 -15
-13 -12 -10 -11 -9 -6 -4 -4 -5 -4 -3 -3 -3 -4 -5 -6 -5 -5 -6 -6 -6 -4 -6 -4 -4 -3 -3 -3 -3 -3 -4 -4 -5 -5 -5 -5 -6 -6 -7 -7 -7 -8 -8 -8 -8 -9 -10 -11 -12 -12 -13 -13 -12 -12
-16 -15 -13 -8 -6 -5 -4 -4 -4 -4 -3 -3 -4 -4 -4 -5 -7 -5 -5 -5 -5 -5 -4 -4 -4 -4 -3 -3 -3 -3 -3 -4 -4 -5 -5 -5 -6 -6 -6 -7 -7 -7 -7 -7 -8 -8 -10 -11 -11 -11 -11 -12 -12 -12
-16 -15 -14 -10 -7 -7 -6 -6 -6 -5 -7 -5 -5 -6 -6 -8 -6 -5 -5 -6 -5 -5 -4 -4 -4 -4 -4 -4 -4 -4 -4 -5 -5 -5 -5 -5 -6 -6 -6 -6 -6 -7 -7 -8 -8 -9 -10 -10 -11 -11 -12 -12 -13 -12
-14 -13 -11 -8 -8 -7 -7 -6 -5 -5 -6 -7 -7 -6 -6 -7 -6 -5 -5 -6 -6 -5 -4 -4 -4 -4 -4 -5 -4 -5 -5 -5 -5 -5 -6 -6 -6 -6 -6 -7 -7 -7 -8 -8 -8 -9 -10 -10 -11 -11 -12 -12 -13 -13
-12 -8 -9 -9 -5 -8 -10 -10 -8 -7 -8 -7 -7 -8 -8 -5 -9 -8 -7 -6 -7 -6 -5 -6 -7 -8 -6 -5 -5 -5 -5 -6 -5 -6 -6 -6 -7 -7 -7 -8 -7 -7 -7 -8 -9 -9 -10 -10 -10 -11 -11 -12 -13 -13
-9 -7 -8 -9 -8 -9 -8 -9 -9 -8 -8 -8 -8 -6 -5 -10 -10 -10 -6 -7 -11 -12 -11 -11 -11 -9 -8 -7 -7 -7 -7 -6 -6 -6 -7 -7 -7 -7 -8 -8 -8 -8 -8 -8 -9 -9 -10 -10 -10 -11 -12 -12 -13 -14
-10 -10 -7 -6 -5 -6 -8 -6 -7 -8 -9 -9 -8 -8 -10 -10 -9 -8 -4 -6 -8 -9 -8 -9 -10 -9 -7 -6 -6 -7 -7 -7 -7 -7 -7 -7 -8 -8 -8 -8 -8 -8 -8 -8 -9 -9 -9 -10 -10 -11 -12 -12 -13 -14
-7 -6 -10 -6 -5 -6 -10 -11 -11 -10 -9 -7 -8 -9 -11 -11 -9 -5 -5 -5 -7 -9 -9 -9 -8 -7 -7 -7 -7 -7 -8 -8 -8 -8 -8 -8 -8 -8 -9 -9 -9 -9 -10 -9 -9 -9 -10 -10 -11 -11 -12 -13 -13 -14
-6 -6 -7 -11 -7 -7 -6 -8 -7 -7 -6 -6 -11 -11 -6 -6 -6 -5 -5 -5 -6 -9 -10 -10 -8 -8 -8 -7 -7 -8 -8 -8 -8 -8 -8 -8 -9 -9 -9 -9 -9 -9 -10 -10 -11 -11 -11 -11 -12 -12 -12 -13 -13 -14
-7 -7 -7 -10 -12 -8 -7 -7 -7 -7 -6 -6 -6 -7 -7 -7 -6 -6 -6 -6 -7 -8 -8 -8 -9 -9 -8 -8 -8 -8 -8 -8 -8 -9 -9 -9 -9 -9 -9 -10 -10 -10 -10 -10 -11 -11 -12 -12 -12 -13 -13 -14 -14 -14
-8 -8 -8 -7 -10 -8 -8 -8 -8 -7 -6 -6 -6 -7 -7 -7 -7 -7 -7 -7 -7 -7 -7 -8 -8 -8 -8 -8 -8 -9 -9 -9 -9 -10 -10 -10 -10 -10 -10 -11 -11 -11 -10 -10 -11 -11 -12 -12 -12 -13 -13 -14 -14 -15
-9 -8 -7 -10 -10 -8 -8 -8 -8 -8 -8 -7 -6 -7 -7 -8 -8 -8 -8 -8 -8 -8 -8 -8 -8 -8 -8 -8 -9 -9 -9 -9 -9 -10 -10 -10 -10 -10 -11 -11 -11 -12 -11 -11 -12 -12 -12 -13 -13 -13 -14 -14 -15 -15
-8 -7 -6 -7 -9 -9 -9 -8 -9 -8 -9 -8 -7 -7 -7 -7 -8 -8 -9 -9 -9 -9 -9 -9 -9 -9 -9 -9 -9 -9 -9 -10 -10 -10 -10 -10 -10 -11 -11 -11 -11 -12 -12 -13 -13 -13 -13 -14 -14 -14 -15 -15 -17 -18

GFSWCAN_850_dewp_162.txt.gz
Dewpoint
-6 -8 -7 -6 -7 -7 -8 -9 -8 -7 -8 -8 -7 -8 -8 -9 -5 -4 -4 -2 -3 -2 -3 -4 -2 -1 -1 -1 1 -0 2 2 1 2 3 2 2 0 0 -1 0 -1 -1 -1 -0 2 1 -5 -6 -4 -4 -3 -4 -4
-7 -7 -7 -7 -8 -9 -8 -8 -8 -7 -7 -8 -7 -6 -6 -6 -4 -3 -2 -3 -2 -2 -2 -1 -2 -2 -3 -2 -0 0 1 1 1 2 1 -0 1 1 1 1 -4 -1 -1 -1 -1 -1 -3 -2 -5 -6 -5 -4 -4 -5
-7 -7 -7 -8 -8 -8 -9 -9 -10 -10 -9 -7 -9 -9 -5 -4 -4 -4 -3 -3 -3 -2 -2 -1 -2 -2 -2 -3 -2 -1 0 1 0 -1 -1 -0 -2 -3 -1 -1 -2 -3 -5 -3 -1 -1 -1 -1 -3 -4 -4 -5 -4 -5
-9 -8 -8 -9 -8 -8 -8 -8 -9 -10 -9 -9 -9 -9 -8 -7 -6 -5 -7 -5 -2 -1 -2 -3 -3 -2 -3 -2 -0 -1 -1 1 0 -1 -1 -0 -0 -4 -2 -3 -3 -3 -3 -2 -1 -1 -1 -2 -3 -4 -4 -4 -5 -5
-8 -8 -8 -8 -8 -8 -9 -10 -10 -10 -9 -8 -6 -7 -9 -9 -7 -6 -6 -5 -3 -1 -1 -1 -2 -4 -2 -1 -0 -1 1 0 0 -1 -0 -0 -4 -3 -3 -3 -2 -3 -3 -2 -2 -2 -3 -2 -3 -3 -4 -4 -5 -5
-9 -8 -8 -7 -7 -8 -8 -8 -9 -10 -9 -6 -5 -5 -5 -6 -6 -4 -4 -5 -3 -2 -1 -1 -1 -1 -0 0 -0 -1 0 0 -0 -0 -1 -5 -6 -5 -2 -2 -5 -3 -4 -6 -5 -2 -3 -3 -3 -4 -4 -5 -5 -6
-8 -9 -8 -8 -8 -8 -8 -9 -11 -9 -8 -6 -4 -4 -4 -5 -6 -5 -2 -1 -4 -1 -1 -1 -1 -1 -1 -1 -0 0 -0 -0 -0 -1 -4 -5 -6 -7 -4 -4 -4 -3 -4 -4 -3 -2 -2 -3 -4 -4 -5 -6 -6 -7
-5 -6 -8 -9 -8 -8 -9 -9 -8 -8 -6 -4 -4 -3 -3 -6 -5 -5 -4 -2 -1 -1 -1 -1 -1 -1 -0 -1 -1 -1 -0 -2 -4 -5 -7 -5 -5 -5 -4 -3 -1 -2 -2 -2 -2 -3 -3 -3 -4 -5 -5 -6 -8 -9
-3 -3 -3 -3 -4 -5 -6 -7 -6 -4 -4 -4 -3 -3 -5 -4 -3 -5 -4 -1 -1 -1 -1 -1 -0 0 -0 -1 -0 -1 -3 -1 -4 -3 -5 -5 -5 -6 -6 -1 -1 -2 -3 -2 -3 -3 -3 -3 -4 -5 -6 -8 -7 -9
0 -0 -2 -2 -3 -3 -3 -4 -4 -4 -2 -3 -3 -3 -4 -5 -2 -3 -1 -0 -0 -0 -1 -1 -1 -1 -1 -3 -2 -3 -5 -2 -2 -3 -4 -2 -3 -4 -4 -2 -2 -2 -3 -3 -3 -4 -4 -5 -5 -6 -6 -7 -7 -7
-3 -2 0 -1 -3 -3 -3 -4 -3 -3 -3 -3 -4 -3 -3 -4 -1 -2 -1 -2 -2 -2 -1 -2 -1 -2 -2 -1 -1 -4 -4 -3 -2 -2 -2 -1 -2 -4 -2 -2 -2 -3 -4 -4 -7 -7 -4 -3 -4 -6 -7 -8 -9 -10
0 1 1 -2 -2 -3 -3 -3 -3 -3 -3 -6 -5 -1 -2 -2 -1 -2 -3 -2 -2 -2 -3 -3 -3 -3 -4 -4 -3 -3 -2 -5 -3 -4 -5 -2 -3 -4 -2 -2 -3 -4 -4 -5 -6 -5 -4 -4 -5 -5 -6 -9 -10 -11
-4 -3 -2 -3 -3 -3 -2 -3 -3 -4 -4 -2 -2 -2 -1 -2 -5 -3 -4 -2 -3 -3 -3 -3 -3 -4 -5 -4 -4 -5 -4 -4 -4 -6 -3 -4 -4 -3 -3 -2 -4 -4 -4 -5 -5 -4 -4 -4 -5 -6 -9 -10 -10 -10
-2 -2 -3 -3 -3 -3 -3 -3 -5 -4 -2 -4 -4 -4 -5 -4 -4 -4 -4 -3 -4 -3 -4 -4 -3 -2 -3 -3 -4 -5 -4 -4 -5 -3 -3 -5 -3 -3 -3 -3 -4 -4 -4 -5 -6 -5 -5 -6 -8 -9 -10 -9 -10 -9
-3 -3 -3 -3 -2 -3 -4 -4 -4 -4 -6 -7 -7 -7 -6 -6 -3 -2 -2 -3 -3 -4 -4 -4 -3 -3 -3 -4 -4 -4 -3 -3 -3 -3 -5 -5 -4 -4 -4 -4 -4 -4 -4 -5 -6 -6 -6 -8 -8 -9 -9 -9 -8 -11
-2 -3 -2 -3 -4 -4 -4 -3 -6 -6 -4 -3 -3 -3 -2 -2 -3 -2 -2 -3 -3 -5 -5 -5 -4 -5 -5 -4 -4 -4 -3 -3 -6 -6 -5 -4 -4 -4 -4 -4 -4 -4 -4 -5 -6 -7 -7 -8 -8 -8 -8 -9 -12 -14
-2 -2 -3 -3 -4 -2 -3 -4 -6 -5 -4 -3 -3 -2 -2 -1 -2 -2 -2 -3 -4 -5 -4 -4 -6 -7 -4 -4 -3 -4 -5 -7 -4 -4 -4 -4 -4 -4 -4 -4 -4 -5 -5 -6 -6 -7 -8 -8 -8 -8 -9 -12 -14 -16
-2 -2 -3 -3 -5 -4 -6 -7 -5 -4 -3 -3 -3 -3 -2 -2 -2 -2 -3 -3 -5 -4 -5 -4 -4 -3 -4 -2 -5 -6 -4 -4 -5 -5 -4 -5 -5 -5 -5 -5 -5 -5 -6 -6 -7 -7 -8 -8 -9 -11 -12 -13 -15 -16
-4 -4 -7 -8 -9 -8 -8 -6 -5 -4 -3 -3 -3 -2 -2 -2 -2 -2 -3 -4 -5 -4 -3 -4 -4 -3 -6 -4 -4 -4 -4 -4 -5 -5 -4 -5 -5 -5 -5 -5 -6 -6 -7 -7 -8 -9 -9 -9 -10 -12 -13 -14 -15 -16
-6 -9 -10 -12 -12 -9 -6 -6 -5 -4 -4 -3 -3 -3 -2 -2 -2 -2 -4 -4 -5 -6 -6 -5 -5 -5 -4 -3 -3 -3 -4 -4 -4 -4 -5 -5 -5 -5 -5 -6 -6 -7 -8 -9 -9 -9 -9 -10 -11 -12 -13 -14 -15 -16
-7 -10 -11 -11 -9 -7 -5 -5 -5 -3 -2 -3 -3 -3 -3 -5 -3 -2 -4 -7 -6 -4 -5 -4 -4 -3 -3 -3 -3 -3 -4 -4 -4 -5 -5 -5 -5 -5 -5 -6 -8 -8 -8 -8 -9 -9 -9 -9 -11 -12 -13 -15 -15 -15
-13 -12 -10 -9 -7 -5 -4 -4 -4 -4 -3 -3 -3 -5 -5 -7 -6 -5 -6 -6 -5 -5 -4 -5 -5 -3 -3 -3 -3 -4 -4 -4 -5 -5 -5 -5 -5 -6 -6 -7 -8 -8 -8 -8 -8 -8 -8 -9 -11 -12 -12 -13 -13 -12
-15 -14 -13 -9 -7 -7 -6 -6 -6 -5 -6 -5 -5 -7 -7 -9 -6 -5 -6 -6 -6 -5 -4 -5 -5 -4 -4 -3 -3 -3 -4 -4 -5 -5 -5 -5 -6 -6 -6 -7 -7 -7 -7 -7 -8 -8 -8 -9 -11 -11 -11 -11 -12 -12
-14 -13 -11 -9 -8 -8 -6 -6 -5 -6 -6 -7 -7 -6 -7 -7 -5 -6 -7 -6 -5 -5 -5 -5 -5 -4 -4 -4 -4 -5 -5 -5 -5 -6 -6 -6 -6 -6 -6 -7 -7 -7 -7 -7 -7 -8 -9 -9 -10 -11 -11 -11 -12 -12
-11 -8 -9 -10 -6 -10 -11 -11 -10 -8 -8 -9 -10 -11 -10 -5 -9 -8 -8 -7 -6 -5 -5 -5 -5 -5 -5 -5 -5 -5 -5 -5 -6 -6 -6 -7 -7 -7 -7 -7 -7 -7 -7 -7 -8 -8 -9 -10 -10 -11 -11 -12 -12 -12
-10 -7 -9 -10 -9 -11 -10 -10 -11 -10 -10 -9 -10 -7 -6 -13 -13 -12 -7 -8 -7 -6 -6 -6 -7 -7 -6 -6 -6 -6 -6 -6 -6 -6 -7 -7 -7 -8 -8 -8 -8 -8 -8 -8 -8 -8 -9 -9 -10 -10 -11 -11 -12 -12
-11 -11 -7 -5 -5 -6 -9 -7 -7 -10 -10 -10 -9 -6 -11 -11 -12 -10 -5 -9 -11 -14 -12 -11 -11 -11 -9 -7 -7 -7 -7 -7 -7 -7 -7 -7 -8 -8 -8 -8 -8 -8 -7 -7 -8 -8 -9 -9 -10 -10 -10 -11 -12 -12
-6 -6 -10 -7 -6 -7 -12 -12 -11 -10 -10 -8 -8 -10 -12 -14 -12 -5 -4 -5 -7 -8 -9 -9 -8 -7 -6 -6 -7 -7 -8 -8 -8 -7 -7 -7 -8 -8 -8 -8 -8 -8 -9 -10 -9 -9 -9 -9 -10 -10 -10 -11 -12 -13
-7 -7 -7 -13 -8 -7 -7 -7 -7 -7 -7 -7 -11 -10 -8 -6 -6 -5 -5 -5 -5 -8 -9 -9 -8 -8 -8 -8 -8 -8 -8 -8 -9 -8 -8 -8 -8 -8 -9 -9 -9 -9 -9 -10 -10 -10 -10 -10 -10 -11 -11 -12 -13 -13
-8 -8 -7 -11 -12 -9 -8 -8 -7 -7 -7 -7 -7 -7 -7 -7 -6 -6 -6 -6 -6 -7 -8 -8 -9 -8 -8 -8 -8 -8 -9 -9 -9 -9 -8 -9 -9 -9 -9 -9 -10 -10 -10 -10 -10 -11 -11 -11 -12 -13 -13 -13 -13 -14
-9 -8 -8 -8 -9 -8 -8 -8 -8 -8 -7 -7 -7 -7 -8 -8 -7 -7 -7 -7 -7 -7 -7 -7 -8 -9 -9 -9 -9 -9 -9 -9 -9 -9 -10 -10 -10 -9 -9 -10 -10 -10 -10 -10 -10 -11 -11 -12 -12 -12 -13 -13 -14 -14
-8 -8 -8 -11 -11 -8 -8 -9 -8 -8 -8 -7 -7 -7 -8 -8 -8 -8 -8 -7 -7 -7 -7 -8 -8 -8 -8 -9 -9 -9 -9 -9 -10 -10 -10 -10 -10 -10 -10 -11 -12 -12 -11 -11 -11 -11 -12 -12 -12 -13 -13 -13 -14 -14
-8 -8 -8 -8 -9 -10 -9 -8 -9 -9 -9 -8 -8 -7 -7 -8 -8 -8 -9 -9 -8 -8 -8 -8 -8 -8 -8 -9 -9 -9 -9 -9 -10 -10 -10 -10 -10 -10 -11 -11 -11 -11 -12 -12 -12 -12 -12 -13 -13 -14 -14 -14 -15 -15

GFSWCAN_850_dewp_165.txt.gz
Dewpoint
-3 -5 -5 -5 -11 -7 -6 -6 -8 -9 -11 -12 -11 -9 -6 -6 -6 -5 -3 -3 -3 -2 -3 -3 -2 -0 -0 -1 0 -0 0 1 2 2 2 3 2 1 0 -2 0 1 2 2 3 3 3 -5 -6 -3 -2 -3 -4 -4
-4 -5 -6 -10 -9 -6 -6 -7 -8 -10 -10 -10 -9 -7 -7 -6 -7 -5 -4 -4 -3 -2 -4 -2 -3 -4 -4 -4 -2 -1 -0 1 0 2 2 1 2 1 0 1 -3 1 1 1 1 1 -3 -4 -5 -6 -6 -4 -5 -4
-6 -7 -8 -10 -9 -6 -6 -6 -7 -9 -9 -9 -9 -8 -6 -7 -8 -5 -4 -2 -2 -2 -3 -3 -3 -7 -2 -5 -4 -0 -1 -1 1 1 0 -0 1 -1 2 2 -1 -3 -4 1 -1 -1 -2 -1 -3 -5 -5 -6 -5 -6
-6 -7 -9 -9 -8 -7 -7 -8 -8 -9 -10 -9 -8 -9 -9 -5 -5 -4 -4 -3 -3 -2 -3 -4 -6 -4 -5 -4 -4 -2 -2 -2 -1 -0 -0 2 0 -4 -2 -2 -1 -1 -2 -0 -1 -1 -1 -2 -3 -4 -4 -5 -5 -5
-6 -9 -10 -8 -8 -8 -8 -8 -9 -9 -10 -11 -9 -10 -10 -8 -5 -4 -4 -5 -5 -3 -2 -1 -1 -4 -4 -4 -3 -3 -1 -1 -0 -0 0 1 -1 -3 -3 -2 -0 -3 -2 -0 1 -1 -1 -2 -3 -4 -5 -4 -5 -5
-6 -10 -12 -8 -8 -8 -9 -8 -8 -9 -9 -10 -9 -8 -8 -8 -6 -5 -4 -8 -8 -5 -3 -1 -3 -1 -2 -1 -1 -0 -0 0 0 -0 0 -1 -5 -2 1 0 -4 -5 -5 -5 -4 -3 -4 -4 -4 -4 -4 -5 -5 -6
-6 -7 -11 -11 -9 -9 -9 -11 -12 -12 -11 -11 -9 -7 -6 -6 -7 -5 -6 -2 -2 -3 -2 -1 -1 -1 -1 -1 -1 -0 0 -0 0 -1 -1 -1 -4 -4 -2 -2 -5 -3 -4 -5 -4 -3 -3 -3 -4 -4 -5 -5 -5 -6
-6 -6 -8 -10 -9 -8 -8 -8 -10 -11 -10 -10 -7 -4 -4 -4 -4 -4 -9 -3 -3 -2 -1 -0 -1 -1 -1 -1 -1 -1 -1 -1 -1 -1 -2 -1 -2 -2 -3 -4 -2 -2 -3 -2 -3 -4 -4 -3 -4 -4 -5 -5 -7 -7
-12 -9 -8 -8 -9 -8 -8 -8 -10 -14 -13 -8 -6 -4 -3 -3 -4 -5 -7 -6 -3 -2 -1 -1 -1 -0 -1 -1 -1 -1 -1 0 -1 -2 -2 -1 -1 -1 -5 -1 -1 -2 -3 -2 -3 -3 -3 -3 -4 -5 -6 -7 -7 -8
-3 -3 -5 -6 -7 -8 -9 -9 -12 -14 -9 -6 -4 -4 -4 -6 -6 -5 -3 -2 -2 -1 -1 -1 -1 -1 -1 -1 -1 -1 -2 -1 0 -3 -3 -2 -4 -6 -5 -2 -2 -3 -3 -3 -4 -5 -5 -5 -5 -6 -6 -6 -7 -7
-2 -2 -3 -3 -4 -7 -8 -8 -9 -8 -6 -3 -3 -5 -5 -6 -6 -2 -1 -2 -1 -1 -1 -2 -1 -0 -1 -1 -1 -3 -2 -2 -1 -3 -2 -2 -3 -4 -3 -2 -2 -3 -3 -3 -6 -6 -4 -4 -4 -6 -6 -7 -7 -7
-2 -1 -2 -3 -3 -4 -5 -6 -6 -4 -4 -4 -5 -5 -4 -4 -2 -2 -4 -3 -2 -2 -2 -2 -1 -1 -2 -2 -2 -3 -2 -3 -4 -4 -2 -1 -2 -5 -2 -2 -3 -3 -3 -4 -6 -6 -4 -4 -4 -5 -6 -7 -7 -9
-2 -1 -1 -3 -3 -3 -4 -4 -4 -4 -5 -4 -4 -3 -3 -3 -3 -3 -4 -3 -2 -3 -3 -2 -1 -3 -4 -5 -4 -3 -3 -2 -4 -2 -3 -4 -4 -3 -2 -2 -3 -3 -5 -6 -5 -4 -4 -4 -4 -5 -6 -7 -8 -10
-1 -1 -2 -2 -3 -3 -4 -3 -4 -5 -4 -5 -3 -2 -2 -4 -3 -4 -4 -4 -4 -3 -3 -4 -3 -2 -4 -3 -4 -2 -3 -4 -2 -1 -2 -4 -3 -2 -2 -3 -3 -4 -5 -6 -5 -5 -4 -4 -5 -6 -7 -8 -10 -10
-3 -3 -3 -3 -3 -3 -3 -5 -6 -5 -5 -6 -6 -6 -6 -6 -5 -3 -4 -3 -3 -3 -4 -4 -4 -4 -3 -3 -4 -3 -2 -1 -2 -2 -4 -5 -4 -3 -2 -4 -4 -5 -5 -6 -5 -5 -5 -5 -5 -7 -9 -10 -10 -10
-3 -4 -3 -3 -3 -4 -5 -3 -3 -4 -4 -3 -3 -4 -3 -3 -3 -3 -2 -3 -3 -4 -5 -5 -4 -4 -4 -3 -3 -3 -2 -2 -4 -5 -5 -4 -4 -3 -3 -4 -5 -5 -5 -6 -5 -5 -6 -7 -8 -9 -9 -9 -9 -9
-3 -2 -4 -5 -5 -3 -3 -4 -4 -4 -4 -3 -2 -2 -2 -2 -3 -3 -2 -3 -4 -6 -4 -4 -5 -4 -4 -3 -4 -4 -3 -5 -4 -5 -5 -4 -4 -4 -4 -4 -4 -4 -5 -5 -6 -6 -7 -8 -9 -8 -8 -8 -9 -12
-3 -4 -4 -4 -3 -3 -5 -5 -3 -4 -3 -3 -2 -3 -2 -3 -3 -2 -3 -4 -5 -5 -4 -4 -4 -3 -2 -3 -2 -4 -4 -5 -5 -5 -5 -5 -4 -4 -4 -4 -4 -5 -5 -6 -7 -7 -8 -8 -8 -8 -8 -9 -12 -14
-4 -3 -4 -4 -4 -6 -6 -6 -4 -4 -3 -3 -3 -2 -2 -3 -3 -2 -3 -4 -5 -5 -4 -4 -3 -2 -3 -4 -4 -5 -5 -4 -5 -5 -5 -5 -5 -4 -4 -5 -5 -5 -6 -6 -7 -7 -7 -8 -8 -9 -10 -11 -13 -14
-7 -8 -8 -7 -6 -7 -6 -6 -4 -4 -3 -3 -3 -3 -3 -3 -4 -4 -4 -4 -3 -4 -5 -4 -4 -5 -5 -4 -4 -4 -4 -4 -5 -6 -5 -5 -5 -5 -5 -5 -5 -6 -7 -7 -7 -7 -8 -9 -10 -11 -11 -12 -13 -14
-10 -9 -9 -8 -7 -7 -5 -5 -4 -3 -3 -3 -3 -3 -3 -3 -2 -1 -2 -5 -7 -5 -4 -4 -4 -4 -4 -4 -4 -4 -4 -4 -4 -5 -5 -6 -6 -6 -6 -6 -7 -7 -7 -8 -9 -9 -9 -9 -10 -10 -11 -13 -14 -15
-12 -14 -12 -8 -7 -5 -5 -4 -4 -3 -3 -3 -4 -4 -6 -6 -5 -4 -4 -7 -6 -5 -4 -4 -4 -4 -4 -4 -4 -4 -4 -4 -5 -5 -5 -5 -5 -6 -6 -6 -7 -8 -8 -8 -9 -9 -9 -9 -10 -10 -11 -12 -14 -15
-15 -15 -13 -8 -7 -7 -6 -6 -5 -5 -5 -5 -5 -7 -7 -9 -6 -6 -7 -6 -6 -5 -5 -5 -5 -4 -4 -4 -4 -4 -4 -4 -5 -5 -5 -5 -6 -6 -6 -7 -8 -8 -8 -8 -7 -8 -8 -8 -9 -10 -11 -11 -12 -13
-14 -13 -12 -9 -8 -7 -6 -6 -5 -6 -6 -6 -7 -7 -7 -8 -5 -6 -7 -6 -6 -5 -4 -5 -5 -4 -4 -4 -4 -5 -5 -6 -5 -5 -5 -6 -6 -6 -7 -7 -7 -7 -7 -7 -7 -8 -8 -9 -9 -10 -11 -11 -11 -12
-11 -9 -10 -9 -7 -9 -9 -9 -9 -8 -8 -8 -9 -10 -8 -6 -7 -7 -7 -8 -6 -5 -5 -5 -5 -5 -5 -5 -5 -5 -5 -6 -6 -7 -7 -7 -6 -6 -7 -7 -7 -7 -7 -7 -7 -8 -8 -9 -9 -10 -10 -11 -11 -12
-10 -7 -9 -10 -9 -10 -9 -9 -10 -9 -10 -9 -9 -10 -7 -10 -10 -11 -8 -8 -6 -5 -5 -5 -5 -5 -5 -5 -6 -6 -6 -6 -6 -6 -7 -7 -7 -8 -8 -8 -8 -8 -8 -8 -8 -8 -8 -8 -9 -10 -10 -11 -11 -12
-11 -10 -7 -6 -5 -6 -9 -8 -8 -9 -10 -10 -9 -6 -10 -11 -12 -11 -6 -8 -7 -6 -6 -6 -6 -6 -6 -6 -6 -6 -6 -6 -6 -7 -7 -7 -7 -7 -8 -8 -8 -8 -8 -8 -8 -8 -8 -8 -9 -9 -10 -10 -11 -11
-7 -7 -9 -7 -7 -7 -12 -12 -11 -10 -9 -8 -8 -8 -9 -13 -13 -6 -5 -7 -10 -12 -9 -8 -9 -9 -8 -7 -8 -8 -8 -8 -8 -8 -7 -7 -7 -8 -8 -8 -8 -8 -8 -9 -9 -8 -8 -9 -9 -9 -10 -10 -11 -11
-8 -8 -7 -13 -9 -8 -8 -8 -8 -7 -7 -7 -9 -9 -8 -7 -7 -6 -5 -5 -7 -8 -9 -10 -9 -8 -7 -7 -7 -7 -8 -9 -9 -9 -8 -9 -8 -8 -8 -8 -8 -9 -9 -9 -10 -10 -9 -9 -10 -10 -10 -11 -11 -12
-9 -8 -8 -10 -12 -11 -8 -8 -8 -8 -8 -7 -8 -8 -7 -7 -7 -6 -6 -6 -6 -7 -8 -8 -8 -8 -8 -8 -8 -8 -8 -9 -9 -9 -9 -9 -9 -9 -9 -9 -10 -10 -9 -9 -10 -10 -11 -11 -11 -11 -11 -12 -13 -14
-9 -9 -8 -9 -10 -8 -8 -8 -8 -8 -8 -7 -7 -7 -8 -8 -7 -7 -7 -6 -6 -6 -7 -7 -8 -7 -7 -8 -8 -8 -9 -10 -10 -10 -10 -10 -10 -10 -10 -10 -10 -10 -10 -10 -10 -10 -11 -11 -11 -12 -12 -13 -13 -14
-9 -8 -10 -13 -11 -8 -8 -9 -9 -9 -9 -8 -7 -7 -8 -8 -8 -8 -8 -7 -7 -7 -7 -7 -7 -8 -8 -8 -9 -9 -10 -10 -10 -10 -10 -10 -10 -10 -10 -10 -10 -11 -11 -10 -10 -11 -11 -12 -12 -12 -13 -13 -13 -14
-9 -11 -11 -10 -10 -10 -9 -9 -9 -10 -9 -9 -8 -8 -8 -8 -8 -9 -8 -8 -8 -7 -7 -8 -8 -8 -8 -9 -9 -9 -9 -10 -10 -10 -10 -11 -10 -10 -10 -10 -11 -11 -11 -11 -11 -12 -12 -12 -12 -13 -13 -14 -14 -14

GFSWCAN_850_dewp_168.txt.gz
Dewpoint
-5 -3 -4 -4 -3 -4 -5 -11 -6 -4 -7 -10 -11 -9 -8 -4 -4 -3 -3 -3 -3 -2 -3 -2 -2 -2 -0 -1 -3 -1 0 -1 -0 0 -0 -2 -3 -6 -4 -5 2 3 3 3 4 5 4 -4 -6 -4 -3 -2 -3 -3
-6 -3 -4 -5 -5 -5 -9 -9 -5 -4 -8 -10 -12 -11 -8 -6 -4 -4 -3 -5 -3 -3 -2 -2 -2 -3 -3 -3 -2 -2 -0 -1 0 -0 -2 -4 -0 3 -3 -1 -2 3 5 4 1 1 -1 -5 -3 -3 -3 -2 -2 -2
-4 -3 -4 -5 -6 -8 -10 -6 -5 -6 -8 -8 -8 -10 -7 -7 -6 -5 -3 -5 -2 -2 -3 -3 -3 -4 -5 -2 -2 -3 -1 -1 -2 -1 2 -0 -1 -4 0 -0 -1 -2 -3 3 0 -2 -2 -2 -1 -2 -2 -2 -3 -2
-3 -4 -5 -7 -9 -11 -8 -6 -6 -7 -8 -8 -8 -10 -9 -6 -6 -6 -4 -4 -3 -2 -2 -4 -3 -3 -3 -3 -3 -2 -4 -1 -2 -0 -0 2 1 -3 -4 -4 -1 -0 -2 -1 0 -1 -1 -1 -1 -2 -2 -3 -3 -4
-4 -5 -6 -8 -11 -11 -7 -7 -7 -8 -8 -9 -10 -10 -9 -8 -5 -5 -4 -4 -4 -3 -2 -2 -2 -3 -4 -6 -3 -1 -0 -1 -1 -1 -0 -1 -3 -1 -3 -2 -1 -3 -2 2 2 1 0 -1 -1 -2 -2 -3 -4 -5
-4 -5 -7 -10 -11 -9 -8 -8 -8 -9 -11 -12 -15 -10 -10 -10 -6 -4 -4 -5 -6 -4 -3 -3 -3 -4 -4 -2 -1 -1 -0 -0 -0 -1 -1 -2 -2 -2 -1 -3 -6 -6 -4 -2 -0 -1 -2 -1 -1 -2 -3 -4 -5 -5
-4 -5 -7 -11 -13 -8 -7 -8 -8 -9 -9 -11 -12 -10 -8 -9 -7 -4 -4 -2 -3 -4 -4 -2 -2 -1 -1 0 0 -0 -0 -0 -0 -1 -0 -0 -2 -3 -0 -1 -5 -4 -4 -0 0 -2 -2 -2 -3 -4 -4 -5 -5 -6
-4 -5 -6 -11 -15 -9 -8 -8 -8 -9 -10 -12 -12 -10 -7 -6 -6 -5 -5 -3 -3 -3 -3 -1 -1 -1 -1 -1 -1 -1 -0 -0 -1 -0 -1 -0 -2 -2 -0 -4 -4 -3 -2 -2 -2 -2 -3 -3 -4 -4 -5 -6 -7 -7
-6 -5 -5 -7 -14 -11 -10 -11 -12 -12 -13 -12 -12 -6 -4 -4 -4 -4 -6 -6 -6 -5 -2 -2 -2 -2 -1 -1 -1 -2 -1 -0 -1 -0 -1 0 1 1 -2 -4 -3 -2 -2 -2 -2 -3 -4 -4 -5 -5 -6 -6 -7 -7
-11 -7 -6 -6 -9 -13 -10 -10 -10 -11 -13 -11 -6 -3 -3 -3 -5 -6 -5 -3 -3 -3 -3 -0 -1 -0 -1 -1 -0 -0 -1 1 0 -1 -1 -0 -0 -3 -3 -4 -3 -2 -2 -3 -3 -4 -4 -4 -5 -6 -6 -7 -7 -8
-4 -10 -7 -6 -8 -11 -10 -9 -8 -9 -10 -5 -4 -4 -5 -5 -4 -4 -2 -2 -1 -0 -1 -1 -2 -3 -1 0 0 -1 1 -0 1 -0 0 2 0 -3 -5 -2 -2 -2 -3 -3 -4 -4 -5 -4 -5 -6 -7 -7 -7 -8
-3 -3 -5 -7 -7 -10 -10 -8 -8 -8 -5 -7 -4 -4 -4 -3 -2 -1 -2 -1 -2 -1 -2 -1 -0 -1 -1 -1 0 -1 -1 -2 -3 -2 1 -2 -6 -6 -3 -1 -1 -2 -3 -3 -4 -4 -4 -5 -6 -6 -7 -7 -7 -8
-2 -3 -3 -4 -6 -8 -9 -9 -10 -8 -6 -4 -3 -3 -2 -2 -1 -2 -2 -2 -1 -2 -2 -1 1 -0 -1 -1 -1 -0 0 -2 -4 -1 -4 -7 -4 -3 -2 -2 -2 -2 -3 -5 -5 -5 -5 -6 -6 -6 -7 -7 -7 -7
-2 -3 -3 -3 -4 -6 -8 -9 -11 -9 -4 -3 -3 -2 -3 -2 -3 -4 -5 -5 -3 -2 -2 -1 -1 -0 -2 -1 -2 -0 -2 -3 -1 -1 -4 -4 -4 -2 -2 -2 -3 -4 -5 -6 -6 -5 -5 -4 -5 -6 -6 -6 -6 -9
-2 -2 -3 -3 -4 -4 -6 -8 -7 -4 -3 -4 -4 -4 -2 -3 -4 -3 -2 -3 -2 -2 -2 -3 -3 -3 -2 -1 -3 -2 0 -0 -2 -3 -2 -3 -3 -2 -2 -3 -4 -5 -6 -6 -5 -5 -4 -4 -5 -6 -6 -7 -9 -10
-2 -3 -3 -3 -4 -4 -4 -4 -3 -2 -3 -3 -3 -2 -3 -2 -0 -3 -2 -2 -1 -2 -3 -3 -2 -0 -2 -2 -2 -2 -3 -4 -2 -2 -3 -3 -3 -2 -3 -4 -5 -6 -7 -6 -5 -5 -4 -5 -5 -6 -7 -9 -10 -10
-3 -3 -3 -4 -4 -4 -3 -2 -4 -4 -4 -2 -2 -2 -2 -2 -2 -3 -2 -1 -1 -2 1 -3 -1 -2 -4 -3 -4 -4 -1 -2 -3 -4 -4 -4 -3 -3 -4 -4 -5 -6 -6 -6 -6 -6 -5 -5 -6 -8 -9 -9 -10 -10
-4 -3 -3 -3 -3 -3 -2 -5 -5 -3 -2 -2 -2 -2 -2 -3 -3 -3 -3 -2 -2 -3 -4 -3 -4 -4 -2 -4 -3 -2 -3 -3 -5 -5 -6 -5 -4 -3 -4 -4 -5 -5 -6 -5 -5 -6 -6 -7 -9 -9 -9 -9 -9 -9
-4 -5 -4 -4 -4 -4 -4 -4 -4 -2 -3 -2 -3 -2 -2 -3 -3 -3 -2 -3 -4 -5 -3 -2 -1 -2 -1 -3 -2 -3 -4 -4 -4 -6 -6 -5 -4 -4 -4 -5 -5 -5 -5 -6 -6 -7 -8 -9 -9 -8 -8 -8 -9 -12
-5 -5 -5 -5 -4 -5 -4 -3 -3 -2 -2 -2 -3 -2 -3 -2 -4 -4 -4 -4 -3 -1 -1 -2 -2 -2 -3 -3 -3 -3 -4 -4 -4 -6 -7 -5 -5 -5 -5 -5 -5 -5 -6 -6 -7 -8 -8 -8 -8 -8 -9 -10 -11 -12
-6 -6 -6 -4 -3 -5 -6 -4 -3 -2 -2 -2 -3 -3 -2 -3 -2 -2 -2 -2 -1 -2 -3 -3 -3 -3 -5 -4 -4 -4 -4 -4 -5 -4 -5 -6 -5 -5 -5 -5 -6 -6 -6 -7 -7 -8 -8 -8 -8 -9 -10 -11 -12 -13
-12 -10 -7 -6 -6 -5 -5 -4 -3 -3 -2 -2 -2 -3 -3 -1 -1 -2 -3 -3 -3 -3 -3 -4 -4 -4 -4 -4 -4 -5 -4 -4 -5 -5 -5 -5 -6 -6 -6 -6 -6 -7 -7 -7 -8 -8 -9 -9 -10 -10 -10 -11 -12 -13
-9 -13 -12 -8 -7 -6 -5 -5 -4 -4 -2 -2 -4 -5 -3 -4 -4 -5 -4 -3 -4 -6 -5 -5 -5 -4 -4 -4 -4 -4 -4 -5 -5 -5 -5 -5 -5 -6 -6 -7 -7 -7 -8 -8 -9 -9 -8 -8 -8 -9 -10 -10 -11 -13
-12 -14 -12 -9 -7 -5 -7 -4 -4 -5 -4 -4 -5 -5 -6 -5 -5 -4 -3 -6 -5 -6 -5 -5 -4 -4 -4 -4 -4 -4 -5 -5 -5 -5 -5 -6 -6 -6 -6 -7 -8 -8 -8 -7 -7 -7 -8 -8 -9 -9 -9 -10 -10 -11
-11 -9 -10 -6 -8 -6 -5 -5 -5 -6 -4 -5 -6 -6 -5 -5 -4 -4 -6 -7 -5 -5 -5 -4 -4 -4 -4 -4 -5 -5 -6 -6 -5 -5 -6 -6 -6 -7 -7 -7 -7 -7 -7 -7 -8 -8 -8 -9 -9 -9 -9 -10 -11 -11
-8 -7 -6 -6 -5 -6 -7 -5 -5 -6 -6 -6 -6 -8 -6 -5 -6 -6 -10 -6 -5 -5 -5 -4 -4 -4 -4 -5 -5 -5 -6 -6 -7 -7 -7 -7 -7 -7 -7 -7 -7 -7 -8 -8 -8 -8 -8 -8 -9 -9 -10 -10 -11 -11
-6 -6 -6 -6 -6 -6 -6 -6 -7 -6 -6 -6 -7 -5 -5 -7 -8 -10 -6 -7 -6 -6 -5 -5 -5 -4 -4 -5 -5 -6 -7 -6 -6 -6 -8 -8 -8 -8 -8 -9 -9 -8 -9 -8 -8 -8 -8 -8 -8 -9 -9 -10 -10 -11
-7 -7 -6 -7 -7 -7 -6 -7 -7 -6 -7 -7 -7 -5 -6 -8 -10 -6 -6 -6 -7 -6 -5 -5 -5 -5 -5 -6 -7 -6 -6 -6 -7 -7 -7 -7 -7 -8 -8 -9 -9 -9 -9 -9 -9 -8 -8 -8 -9 -9 -9 -10 -10 -11
-7 -7 -8 -9 -8 -7 -7 -7 -7 -8 -7 -7 -6 -6 -7 -7 -7 -7 -6 -6 -6 -8 -6 -5 -5 -7 -8 -7 -7 -8 -7 -7 -8 -8 -7 -7 -8 -8 -8 -8 -8 -8 -9 -9 -9 -10 -10 -9 -9 -9 -9 -10 -10 -11
-8 -9 -8 -8 -8 -7 -7 -7 -7 -7 -7 -7 -7 -7 -7 -7 -8 -7 -6 -6 -6 -7 -7 -6 -8 -8 -7 -7 -8 -8 -8 -8 -9 -8 -7 -8 -9 -9 -9 -9 -9 -10 -9 -9 -9 -10 -10 -10 -10 -10 -10 -10 -11 -12
-9 -8 -8 -8 -8 -7 -7 -8 -8 -8 -8 -8 -7 -7 -7 -7 -8 -8 -7 -6 -6 -6 -7 -7 -8 -8 -7 -7 -7 -8 -9 -9 -9 -9 -9 -10 -10 -10 -10 -10 -10 -10 -10 -9 -9 -10 -10 -11 -11 -11 -11 -12 -12 -13
-9 -8 -8 -9 -10 -8 -9 -8 -8 -9 -8 -8 -8 -7 -7 -7 -7 -8 -8 -7 -7 -7 -7 -7 -7 -7 -7 -7 -8 -8 -9 -10 -10 -10 -10 -10 -10 -10 -10 -10 -10 -10 -10 -10 -10 -10 -11 -11 -11 -12 -12 -12 -13 -13
-10 -10 -10 -10 -10 -9 -8 -9 -9 -10 -9 -9 -8 -8 -7 -7 -8 -8 -9 -8 -8 -8 -7 -7 -7 -8 -8 -8 -8 -9 -10 -10 -10 -10 -10 -11 -11 -10 -10 -10 -10 -11 -11 -10 -10 -11 -11 -11 -12 -12 -12 -13 -13 -14